GFSSE_sfc_thetae_030.txt.gz
Theta_e
342 346 348 349 348 348 348 347 345 344 345 345 344 344 343 341 340 340 338 338 338 336 335 334 333 332 332 334 335 335 335 335 339 342 342 342 342 340 340 341 341 337 341
345 347 346 347 348 348 347 346 344 344 344 342 342 342 341 340 339 339 338 339 337 333 332 332 331 332 333 333 334 334 334 335 336 340 340 339 340 340 339 338 341 337 340
343 344 344 345 347 347 347 345 344 343 341 340 340 341 340 339 339 338 338 337 337 334 334 334 333 333 333 333 335 336 336 336 336 338 339 330 331 337 336 335 336 336 338
343 343 343 345 346 346 345 344 343 341 340 340 339 339 338 339 338 339 338 338 338 335 334 334 333 332 332 334 335 335 338 338 338 338 329 330 333 338 337 335 333 332 332
341 341 343 344 344 345 344 343 342 342 341 340 339 339 338 338 338 338 338 338 337 335 334 333 333 332 333 335 335 334 335 332 331 328 325 328 329 333 335 334 332 332 332
338 340 341 342 343 344 343 343 342 340 338 338 339 340 339 337 336 337 338 337 335 334 334 333 333 334 334 334 334 333 332 330 325 319 321 327 326 333 333 332 333 332 332
337 338 339 339 342 343 343 342 340 339 338 338 339 339 338 337 336 337 337 337 336 334 333 333 333 335 334 334 333 331 331 327 317 318 320 324 327 333 332 332 332 332 333
335 336 338 340 341 341 341 339 338 337 337 337 338 338 338 337 337 337 337 337 336 335 334 334 334 333 333 334 333 330 329 326 319 318 321 322 334 333 333 333 333 333 334
333 334 336 336 338 338 337 336 336 335 335 336 336 336 335 335 335 336 336 336 335 335 333 332 332 331 331 331 332 330 326 326 317 319 324 323 336 333 333 334 333 332 332
328 330 330 333 335 334 334 335 335 334 334 334 334 334 333 333 334 334 334 334 334 333 332 330 329 330 331 331 330 328 322 323 313 317 320 326 333 331 331 331 330 329 329
328 328 327 331 333 332 332 333 334 334 333 333 333 332 329 327 327 329 329 331 332 330 330 328 328 329 327 328 329 326 319 312 312 315 319 330 329 328 328 327 326 324 324
325 327 328 332 331 330 331 329 328 328 326 325 325 325 323 324 325 328 329 330 329 328 328 329 329 327 322 314 315 318 310 310 312 315 317 328 326 324 325 324 323 322 321
325 324 327 330 331 328 327 325 325 324 321 322 323 323 323 325 324 323 321 320 320 325 321 320 317 314 313 313 312 310 310 308 308 312 317 324 325 321 322 322 320 320 318
324 326 329 331 331 326 325 324 322 321 323 323 329 328 326 324 321 321 319 320 319 317 315 314 312 311 309 311 309 308 307 306 306 308 311 320 324 319 319 319 320 318 316
323 327 329 331 330 326 325 323 325 329 331 330 328 328 326 320 319 320 318 317 315 314 313 311 310 308 307 307 307 307 306 305 303 304 307 317 320 320 317 318 317 315 313
324 328 330 330 324 326 327 327 328 330 329 327 326 326 324 320 320 319 317 314 313 311 310 308 307 306 306 306 306 305 305 302 301 301 303 305 316 319 318 316 313 312 311
329 329 328 324 328 328 325 324 323 325 326 324 324 324 322 322 319 316 314 311 311 310 308 308 307 306 305 306 304 302 302 301 301 300 300 300 307 317 318 313 309 310 309
327 326 325 330 325 323 320 319 321 322 322 322 321 321 322 320 318 315 311 309 309 309 307 306 305 304 304 303 299 297 298 299 298 298 298 299 302 306 313 313 310 308 307
326 326 323 325 322 320 320 319 319 320 320 319 318 319 319 318 317 312 309 307 308 307 305 305 304 303 302 299 299 297 297 297 296 298 296 296 296 299 303 308 308 308 306
325 326 326 324 321 320 318 319 319 318 318 317 316 316 312 311 312 309 307 306 306 304 302 301 300 299 299 297 300 296 295 295 294 294 294 295 295 297 297 296 295 300 306
324 323 324 322 321 320 318 316 316 316 315 315 313 311 309 308 309 307 306 304 304 302 300 300 298 297 297 296 293 293 293 293 293 293 292 292 292 293 293 294 295 294 295
322 324 323 323 321 320 319 318 319 316 312 310 308 308 307 307 307 306 305 303 302 301 299 298 297 295 296 294 291 290 287 290 292 292 290 291 288 290 291 292 292 293 292
321 323 323 323 322 320 320 320 315 310 308 306 305 305 306 307 307 305 304 302 301 300 299 298 298 296 293 293 293 291 286 284 286 289 289 288 287 287 288 289 291 291 290
323 324 324 324 323 322 320 318 314 311 307 305 304 304 305 306 301 300 299 297 297 296 295 296 299 295 293 291 291 294 290 289 284 282 286 286 287 288 287 287 288 289 290
323 323 323 323 323 323 322 315 311 307 306 306 304 302 298 297 298 299 297 296 296 295 295 295 295 295 293 291 291 290 289 288 286 284 280 283 285 287 287 287 287 287 289
323 323 323 322 321 319 321 312 310 305 303 301 296 294 295 296 297 296 296 295 294 294 295 295 294 294 293 293 292 294 292 290 285 283 281 281 282 284 286 287 286 286 287

GFSSE_sfc_thetae_033.txt.gz
Theta_e
342 346 347 348 347 347 346 344 344 343 344 343 342 342 341 340 339 339 339 339 338 334 333 333 334 334 333 334 334 334 336 340 341 342 342 340 339 339 339 340 339 336 340
342 346 345 347 347 347 345 344 344 343 342 341 341 340 340 339 339 340 338 337 337 334 334 335 334 334 334 335 335 336 334 338 341 340 338 337 337 336 335 334 337 334 338
343 344 344 345 346 346 345 345 344 342 339 338 338 339 339 339 340 338 338 338 338 336 334 334 333 333 334 337 341 339 336 337 340 339 337 329 330 336 335 333 333 331 335
343 343 342 344 345 345 344 343 342 340 338 339 338 337 338 337 338 339 339 338 338 337 334 334 333 333 333 336 337 340 340 339 336 334 329 329 329 334 333 332 331 331 332
342 341 343 343 343 344 343 342 341 340 339 339 339 338 337 337 336 337 339 338 338 335 334 334 333 332 334 334 334 335 335 334 333 329 325 325 325 331 333 333 332 332 331
340 341 341 342 342 343 342 342 341 339 338 339 339 339 339 337 336 337 338 338 337 334 334 333 333 335 333 333 333 333 332 328 324 319 321 326 325 333 333 333 332 333 332
337 339 340 340 341 342 343 341 340 339 339 339 339 339 339 338 337 338 337 337 337 334 333 333 335 335 333 331 332 331 329 327 319 319 321 324 327 333 333 334 333 333 333
335 337 338 340 339 340 340 339 338 337 338 338 338 338 339 338 337 337 337 337 336 335 335 334 333 334 333 331 330 329 327 325 319 319 321 322 334 333 334 333 332 331 331
330 334 335 335 337 337 336 336 336 336 337 337 337 337 337 336 336 336 336 335 335 334 333 332 331 332 333 331 328 327 326 326 317 321 325 324 332 331 331 331 330 330 329
325 328 330 331 334 333 332 334 334 334 335 336 336 335 333 334 334 334 334 334 333 332 332 331 330 331 332 330 326 326 324 321 315 318 321 325 330 329 328 327 326 326 326
322 323 325 330 331 331 331 332 333 334 334 334 333 332 329 325 325 327 330 331 330 329 329 330 330 328 324 328 325 323 318 311 312 316 319 329 327 327 326 325 324 323 323
317 320 322 325 331 330 331 329 327 327 325 326 325 325 322 323 325 326 329 329 328 327 329 328 327 323 318 312 312 315 307 310 312 313 315 327 325 324 324 323 322 321 320
321 323 320 323 329 327 327 325 324 322 322 322 323 322 323 323 324 321 319 319 320 322 315 315 313 312 311 309 308 307 306 306 305 309 313 322 323 320 321 320 321 320 318
323 324 324 328 330 326 324 323 322 319 320 320 321 322 323 321 321 319 319 319 316 314 312 311 309 308 307 308 306 305 304 302 302 305 308 319 320 319 318 319 319 317 316
322 323 325 329 329 326 322 321 320 323 324 328 328 326 323 319 318 317 316 315 313 312 310 308 306 306 306 306 305 304 302 301 300 301 301 312 318 319 317 318 317 315 314
323 325 327 328 330 325 322 323 325 327 327 326 325 323 320 319 318 316 314 312 310 309 308 307 305 305 304 304 302 302 300 300 298 298 298 299 311 318 318 316 314 313 312
322 325 326 326 323 324 323 324 325 325 325 323 323 322 320 320 318 314 311 310 309 307 307 306 305 305 304 303 299 299 299 299 297 297 297 299 306 314 317 313 310 310 309
323 326 327 327 325 322 321 321 322 322 322 322 321 321 320 318 316 312 309 308 308 307 305 304 304 302 301 298 297 296 297 296 296 295 295 295 298 305 308 312 310 309 307
325 326 322 325 322 320 318 319 320 320 319 319 319 319 319 317 315 310 307 307 306 304 303 303 300 301 298 297 298 295 295 294 294 296 294 294 296 299 298 303 306 307 305
325 325 324 322 320 319 317 318 318 317 316 316 316 316 313 313 311 307 306 305 303 301 300 299 297 298 296 296 298 295 292 293 293 292 291 293 293 293 293 293 294 295 305
323 322 323 320 318 318 317 316 314 314 314 314 313 310 309 310 308 305 304 303 302 300 299 299 297 296 295 294 292 292 292 291 291 291 290 289 290 291 291 291 292 291 292
323 322 322 321 318 318 318 316 317 315 312 311 309 307 307 307 306 305 303 301 300 299 297 297 296 295 295 293 291 289 286 289 290 291 288 289 287 288 290 291 290 290 290
321 322 322 321 320 318 318 317 312 308 307 305 304 303 305 306 305 304 302 300 299 299 296 296 296 295 293 293 292 291 286 284 285 288 288 287 286 286 287 288 289 289 289
319 322 323 322 320 319 318 317 313 311 308 304 303 303 304 304 301 299 297 296 296 295 294 295 296 294 292 291 290 293 289 288 284 283 286 286 286 287 286 287 287 288 288
320 321 322 321 322 321 319 318 314 309 305 304 303 302 296 297 297 298 297 297 296 295 294 294 294 294 293 290 290 290 289 287 286 284 280 283 285 286 286 287 287 286 287
320 321 321 321 321 321 319 316 313 307 304 303 299 295 295 295 296 295 296 295 297 296 294 295 293 293 293 292 291 291 290 287 285 284 282 281 281 284 285 287 286 286 287

GFSSE_sfc_thetae_036.txt.gz
Theta_e
341 344 346 347 346 345 344 344 344 344 344 343 342 341 341 340 340 340 340 338 338 337 336 336 335 336 336 336 338 341 341 342 341 341 340 337 336 335 335 336 338 335 339
343 344 345 346 345 344 344 344 343 343 342 341 341 340 340 340 340 339 338 338 339 337 336 336 337 338 338 338 336 339 341 341 339 339 337 337 336 335 333 332 335 333 338
342 343 344 344 344 344 344 344 343 342 341 339 339 340 340 340 339 339 339 338 339 339 336 336 339 341 342 339 338 339 340 339 339 338 335 328 327 332 332 331 332 332 334
343 342 342 344 343 344 343 342 341 341 340 340 339 339 340 339 339 340 339 338 339 339 335 334 336 337 339 341 341 341 338 337 335 333 327 326 327 333 333 333 332 332 331
341 340 342 343 342 343 342 341 340 340 339 339 339 339 339 338 338 339 338 338 339 338 334 334 334 334 335 336 337 337 335 333 330 326 324 324 326 331 334 334 333 333 332
340 340 340 341 341 342 342 341 340 339 339 339 339 339 339 339 337 339 338 338 339 338 334 333 332 333 335 334 334 332 331 329 326 322 324 328 327 333 334 333 333 333 333
338 338 340 339 341 342 342 341 339 339 339 339 339 339 339 339 338 339 338 338 337 338 336 335 334 333 334 332 332 331 329 327 320 321 323 327 328 332 332 332 332 332 332
335 337 338 340 340 340 340 339 338 339 339 339 339 339 340 339 338 338 337 337 336 335 336 336 334 332 332 332 331 329 327 326 321 321 324 324 332 331 331 331 330 330 329
334 334 333 331 331 336 336 336 337 338 338 338 338 338 338 336 336 336 336 335 335 334 334 335 334 332 331 332 330 328 327 326 320 323 326 324 331 329 329 328 328 327 327
328 331 328 327 328 331 332 334 335 336 336 336 337 335 334 334 334 334 334 334 333 333 333 333 333 332 330 329 329 325 323 321 318 320 322 325 329 327 326 325 325 325 325
325 325 324 327 329 329 328 331 334 336 335 334 333 332 328 326 325 324 330 330 330 330 331 332 329 328 327 326 324 321 317 312 314 317 319 328 326 325 325 324 323 322 322
319 322 326 326 328 329 330 326 325 329 326 326 325 322 322 322 321 325 327 328 328 329 330 327 325 322 315 310 310 312 308 309 311 313 314 325 324 323 323 322 322 321 319
318 320 322 324 329 328 327 324 321 321 322 322 322 321 321 322 321 320 319 319 317 319 313 312 311 309 307 306 306 304 304 304 304 308 312 321 322 319 321 321 320 319 318
319 318 321 323 327 326 325 323 321 320 320 320 320 322 322 321 320 318 319 317 313 312 309 308 307 307 306 306 305 303 302 301 300 302 304 316 320 320 317 320 319 317 316
320 320 319 322 327 325 322 321 319 319 320 321 322 323 322 320 318 316 315 314 311 310 308 306 306 306 305 304 303 301 301 300 299 299 300 310 314 318 318 319 318 316 315
321 321 321 324 328 324 320 319 319 322 323 325 325 323 319 317 316 314 312 309 308 307 306 306 305 304 303 301 301 300 300 298 297 298 299 302 316 318 318 317 316 314 313
322 323 323 325 327 323 320 319 320 322 324 322 321 319 318 317 316 312 310 308 306 306 306 305 304 303 301 300 298 299 298 297 296 296 296 299 306 313 316 313 312 310 310
321 322 325 328 323 321 319 319 320 321 321 321 320 319 319 318 315 310 308 307 307 306 305 303 302 301 299 298 296 296 295 296 296 295 296 298 303 303 305 311 311 309 308
321 324 323 323 321 320 318 319 320 321 320 320 319 320 318 316 313 309 307 306 306 304 303 301 299 299 297 297 297 295 294 294 294 294 294 295 296 296 296 303 306 307 305
321 324 323 322 319 318 317 317 317 317 317 318 317 317 316 314 310 307 306 304 302 300 299 298 297 297 296 296 297 295 293 293 293 291 291 293 293 293 293 294 295 296 303
322 322 321 319 317 318 316 315 313 313 314 313 314 311 312 310 307 306 304 302 301 299 298 298 296 295 295 293 293 292 292 292 292 291 291 290 291 291 292 292 293 292 293
322 322 320 320 317 318 319 314 315 313 312 311 309 307 309 307 305 304 302 300 299 298 297 296 296 294 294 293 291 289 287 290 291 291 290 290 289 289 291 292 292 292 292
322 321 322 320 318 318 317 315 310 309 307 306 304 303 304 305 304 302 301 299 298 297 295 295 295 294 292 292 292 291 287 285 286 289 289 288 288 288 289 290 291 291 291
321 321 322 320 318 317 317 316 312 312 307 305 303 302 303 303 300 299 297 296 295 295 294 295 295 294 293 291 292 293 290 289 286 285 288 287 287 288 288 289 289 290 290
320 318 320 320 319 320 318 317 314 311 309 307 302 301 297 296 296 296 296 295 294 294 295 297 297 296 293 291 290 290 289 288 287 285 283 284 286 288 288 288 289 288 289
316 317 319 319 320 320 318 316 314 309 305 304 301 296 295 294 294 295 294 294 294 294 296 296 294 293 292 292 292 291 291 289 287 284 282 282 282 285 287 288 288 289 289

GFSSE_sfc_thetae_039.txt.gz
Theta_e
340 344 346 347 347 347 346 346 346 345 345 345 344 343 341 341 341 340 340 340 340 340 338 338 338 338 342 343 341 339 340 341 340 340 339 336 335 335 334 336 339 338 340
343 344 344 346 346 346 346 345 344 344 344 344 342 340 341 341 340 339 340 341 340 339 339 339 340 339 339 342 341 339 338 340 339 338 336 333 334 333 333 333 337 335 338
342 343 344 344 345 345 345 344 344 344 342 341 341 342 341 340 340 340 340 340 341 341 342 343 341 340 339 341 342 340 338 338 338 336 334 328 330 333 333 332 333 333 334
342 342 342 343 343 344 343 343 343 342 340 341 341 341 340 341 341 340 339 339 340 341 342 343 343 341 339 342 341 339 336 335 333 334 329 329 329 334 334 334 333 332 331
342 342 342 342 342 343 342 341 341 340 339 340 340 340 341 341 341 340 339 338 339 340 339 340 341 341 340 339 338 336 333 332 332 331 329 330 331 333 334 334 333 334 333
342 342 341 341 341 342 341 341 340 339 338 339 339 340 341 341 341 340 339 339 339 338 336 336 336 337 336 335 334 333 332 331 331 329 329 332 330 332 333 333 334 334 333
340 341 341 339 340 341 342 341 340 339 338 339 339 340 340 340 340 339 339 338 338 337 336 335 335 335 334 334 333 331 330 330 328 327 327 329 331 331 331 331 331 331 330
337 339 339 339 340 340 339 339 339 339 339 338 339 339 340 340 338 338 338 337 337 337 335 334 335 334 333 333 331 330 328 329 326 325 325 326 332 329 329 329 328 328 328
335 334 332 333 334 337 336 337 337 338 339 338 339 338 338 337 336 336 336 336 336 336 336 334 333 334 333 332 329 329 328 328 325 324 323 324 329 327 326 325 326 326 326
330 328 324 324 327 331 335 336 336 337 337 338 337 335 334 334 334 335 334 334 334 334 335 334 332 332 332 328 325 323 323 326 326 325 325 326 327 326 325 323 324 324 324
321 321 320 319 327 330 332 336 336 337 336 334 334 333 329 329 330 329 330 331 332 333 332 332 330 328 326 324 322 321 322 322 323 325 325 328 326 325 323 323 322 322 321
317 317 318 325 327 330 329 333 333 333 332 331 329 330 329 331 329 328 328 329 330 329 328 327 324 322 320 317 317 317 316 318 319 321 324 324 324 324 323 322 321 320 320
318 320 322 324 328 328 327 327 329 329 329 329 330 329 330 330 330 328 328 328 329 323 320 318 317 316 317 315 314 313 313 313 314 317 318 320 322 320 323 322 320 319 319
319 319 323 322 323 325 328 325 326 326 327 327 327 330 330 329 327 326 327 323 321 318 318 317 316 316 315 314 313 312 311 311 312 312 311 315 319 320 318 322 319 318 317
319 321 319 322 323 329 328 325 325 326 326 329 328 329 329 329 327 327 323 321 319 318 317 316 316 314 313 312 311 310 309 309 309 310 312 314 318 318 319 320 320 317 315
319 321 323 323 327 332 327 326 325 326 327 327 327 330 330 330 327 324 321 318 317 317 317 316 315 313 311 311 309 309 307 306 307 308 310 313 317 318 317 316 319 316 314
322 322 322 325 330 331 328 327 326 327 328 329 330 331 328 328 325 323 320 317 316 316 316 316 314 313 311 308 308 307 306 305 305 306 308 312 314 315 316 315 314 311 312
324 323 323 326 329 331 327 326 326 329 330 331 331 329 327 326 323 320 318 316 316 316 315 314 312 310 309 308 307 306 306 305 304 305 308 312 312 311 312 314 312 310 309
326 326 325 327 329 331 328 327 328 329 331 330 329 328 326 324 322 320 318 316 316 314 313 311 310 310 307 307 306 307 306 304 303 303 303 306 306 307 308 305 306 308 305
326 327 327 328 330 329 328 327 328 329 330 330 330 329 325 324 319 318 316 315 314 311 310 309 308 308 307 307 303 304 305 303 303 303 302 302 302 303 304 304 305 304 303
325 326 328 328 329 327 325 324 325 326 327 327 326 326 325 321 317 316 314 312 312 311 309 309 307 307 306 306 304 303 303 302 302 302 302 302 300 301 302 302 302 302 302
323 326 329 328 328 327 327 326 326 326 324 324 322 321 322 318 316 315 313 311 310 308 308 308 308 306 306 305 302 300 298 299 301 301 302 300 300 300 299 300 300 300 300
323 325 327 328 327 327 328 325 320 320 318 317 316 316 317 315 314 313 311 309 309 309 306 306 306 305 301 303 302 300 296 295 298 300 300 300 300 299 299 298 298 298 298
323 326 327 328 327 326 325 324 322 322 319 318 316 314 313 313 311 310 309 308 306 305 305 304 304 304 303 300 301 301 302 301 295 293 299 300 300 298 298 298 298 297 297
326 327 328 328 327 326 325 325 324 322 321 317 313 311 310 310 309 307 306 305 304 304 304 304 304 302 301 299 301 301 300 300 300 294 291 294 296 297 298 298 298 297 296
327 327 328 327 326 325 323 323 322 321 316 313 310 307 306 306 305 304 303 304 304 303 303 302 300 300 298 302 302 301 299 297 295 294 292 293 293 295 296 297 297 297 296

GFSSE_sfc_thetae_042.txt.gz
Theta_e
341 344 346 349 349 349 348 348 347 347 347 346 345 344 343 343 342 342 341 341 343 344 342 343 345 344 339 339 340 340 339 340 340 339 338 335 335 335 336 337 340 338 340
343 343 345 347 348 348 348 347 346 346 345 345 343 342 342 341 341 342 342 342 342 341 341 341 344 342 338 338 339 338 337 338 337 338 338 335 335 335 335 334 337 336 338
341 342 346 345 347 347 347 346 345 345 344 343 342 342 341 341 342 342 341 342 343 342 341 341 342 342 339 338 339 338 336 336 336 335 337 329 332 335 335 334 335 333 334
343 341 342 344 345 345 345 344 344 343 342 342 342 342 341 343 342 342 341 342 345 346 343 342 342 341 339 339 338 336 334 333 335 336 329 329 329 334 335 334 334 334 333
343 341 343 343 343 344 343 343 342 341 341 342 341 342 343 342 342 342 341 341 344 347 345 342 343 341 339 338 336 335 334 334 335 330 328 330 330 332 335 335 335 334 333
342 341 341 341 342 343 343 342 340 340 340 339 341 342 342 342 342 341 341 340 341 343 343 342 340 337 336 336 335 334 333 333 331 327 329 330 330 331 332 332 331 331 331
341 344 341 339 341 342 342 341 340 340 338 339 340 341 341 341 341 341 340 338 339 340 339 338 336 336 335 335 333 332 331 331 325 325 327 328 330 329 329 328 329 329 329
339 342 340 340 340 340 340 339 338 338 339 339 340 340 341 341 340 340 339 338 337 337 338 337 335 335 334 332 330 330 329 329 324 323 326 326 330 328 327 326 327 327 327
338 337 337 338 337 336 337 337 337 338 339 339 339 339 338 337 337 337 337 337 337 335 336 335 335 334 332 330 329 329 329 329 325 325 324 325 327 325 324 324 325 325 325
331 331 330 329 326 327 336 336 337 337 338 338 338 336 334 334 335 335 335 336 336 335 334 335 334 332 329 327 326 326 327 327 325 324 325 326 326 325 324 323 324 323 323
322 325 325 325 327 327 333 337 337 338 337 335 334 333 329 328 329 330 331 333 335 334 333 332 331 328 327 324 323 323 323 322 323 323 324 327 326 324 323 323 322 322 322
316 320 322 321 323 327 332 333 335 333 331 331 329 329 328 331 330 328 330 331 331 330 329 327 325 325 325 323 320 320 321 321 321 321 322 323 324 325 323 322 321 321 321
316 317 316 317 320 325 328 332 332 331 331 330 332 330 332 331 330 330 329 330 329 328 325 323 322 323 322 322 320 321 319 319 318 317 317 320 323 322 323 322 320 320 319
316 319 314 315 318 324 327 327 327 325 326 327 329 331 331 329 330 330 330 332 330 328 326 324 323 323 321 320 320 319 317 317 316 315 314 318 318 321 319 323 319 319 318
317 319 320 321 321 322 323 326 328 328 326 327 329 330 330 328 329 330 330 329 328 326 324 323 322 320 320 319 318 316 315 314 312 311 313 318 318 318 319 319 320 318 316
317 317 319 319 323 325 325 326 327 328 327 329 328 331 333 330 331 332 330 327 325 325 324 323 322 321 319 318 316 314 311 310 310 311 311 315 316 317 318 317 321 318 316
319 320 321 324 326 328 331 328 326 327 327 327 328 335 336 335 333 332 329 326 324 325 324 323 321 320 318 316 313 312 312 311 311 310 311 312 314 315 317 316 316 314 314
323 324 325 324 328 332 331 329 325 328 328 327 332 335 336 335 333 331 327 325 324 324 323 322 320 317 317 316 313 312 312 312 310 311 312 311 311 312 313 313 313 311 310
325 325 326 327 328 333 335 330 329 329 329 330 335 334 334 331 330 329 327 325 325 323 322 319 318 319 313 313 311 312 312 310 309 308 309 310 310 311 311 307 307 307 307
327 327 326 328 331 333 334 331 327 326 328 333 336 335 333 331 328 328 326 325 324 321 319 317 316 314 314 312 306 306 309 309 308 308 307 306 308 308 306 305 306 306 304
329 328 328 329 331 332 332 329 325 323 327 332 334 335 332 331 329 328 326 324 322 319 318 317 314 312 310 311 309 309 308 308 307 306 306 306 305 305 305 304 304 305 305
328 330 330 329 330 332 333 332 327 328 328 330 333 334 333 332 328 326 324 321 320 318 316 314 313 310 310 311 307 306 305 305 305 306 306 305 305 305 303 303 303 303 304
327 328 329 330 332 333 333 332 328 331 331 330 330 329 330 329 326 325 323 321 319 317 314 314 311 308 308 309 308 304 301 300 303 305 305 305 304 304 303 303 302 302 302
327 329 329 331 333 334 334 332 328 325 324 327 328 327 326 326 325 322 320 319 318 316 313 311 309 310 306 303 303 304 304 303 298 298 303 303 304 302 302 302 302 302 302
327 328 330 331 333 333 333 333 330 329 328 330 328 325 324 323 321 320 319 318 316 313 312 309 309 307 304 303 304 304 304 303 303 299 295 298 301 302 302 302 301 302 302
329 330 330 330 330 333 333 332 331 331 330 326 324 321 320 319 318 316 315 315 314 311 310 309 310 307 302 304 304 304 302 301 299 298 297 297 297 299 301 301 300 301 301

GFSSE_sfc_thetae_045.txt.gz
Theta_e
341 344 349 351 350 350 349 349 348 348 348 347 346 345 344 344 344 343 344 345 346 348 346 344 342 340 340 340 340 339 339 340 338 338 338 336 335 336 337 338 339 336 340
344 345 347 349 350 350 349 348 348 347 347 346 345 344 343 343 342 343 344 345 345 346 346 342 338 338 338 338 337 337 336 337 338 338 338 337 336 335 335 335 336 334 338
342 344 348 347 349 349 349 348 347 347 345 344 344 343 342 343 343 343 343 343 344 345 344 340 338 338 338 337 337 336 335 335 335 336 339 328 332 336 336 336 336 334 334
341 343 349 346 347 347 347 346 345 344 343 343 343 342 343 343 344 344 344 344 345 345 344 341 339 338 337 336 337 335 335 334 334 338 329 327 328 337 336 334 334 335 333
339 341 348 345 345 345 345 344 343 342 342 342 342 343 344 343 343 344 345 345 346 346 344 341 338 337 336 337 337 335 334 334 335 329 327 328 328 332 333 332 333 333 333
337 339 342 342 343 344 343 342 342 341 340 340 341 343 343 343 343 343 344 345 346 345 343 339 337 335 337 336 335 333 333 334 334 327 327 329 327 330 330 330 330 330 330
337 340 343 340 342 342 342 342 341 340 340 341 341 341 342 342 342 341 341 343 344 344 341 337 335 335 336 335 332 332 332 332 325 326 326 326 327 328 328 327 328 328 328
342 340 339 341 341 340 340 340 340 339 340 340 340 341 341 341 340 339 339 340 341 340 338 337 336 335 333 331 330 330 331 332 325 326 325 324 328 327 327 326 326 327 327
338 337 337 336 340 338 337 337 337 339 339 340 340 340 340 338 338 338 337 338 338 337 336 335 334 333 331 330 330 329 328 331 326 325 324 323 326 325 325 325 324 325 325
333 331 327 327 335 337 336 336 337 338 338 338 338 336 335 335 335 336 335 335 336 336 336 335 333 331 329 328 328 328 327 329 324 324 325 324 326 324 324 324 323 323 323
327 328 326 321 321 327 335 337 337 338 337 335 335 333 330 328 328 328 333 335 334 334 334 333 331 329 328 326 324 323 324 322 322 322 323 328 326 324 323 323 322 322 323
321 322 320 319 319 321 324 331 334 334 333 331 330 330 329 330 330 329 332 332 332 331 332 331 329 327 326 323 321 323 321 321 319 319 321 324 325 325 323 322 321 321 321
319 319 321 320 320 324 325 329 332 332 331 329 331 331 334 332 331 329 329 328 329 328 324 323 322 325 326 324 323 322 320 319 318 316 317 320 321 323 324 322 321 321 320
314 316 318 320 321 323 322 326 331 329 329 328 331 337 333 330 333 331 328 330 329 328 327 327 326 327 325 323 322 319 319 317 314 313 315 319 318 319 321 323 321 320 319
312 313 314 317 319 321 322 324 327 327 324 326 330 332 332 330 333 331 331 331 330 330 328 326 325 323 323 321 320 318 316 313 312 311 315 318 318 317 316 320 322 320 318
312 312 314 318 320 319 320 323 327 329 328 331 330 332 335 331 333 330 331 330 330 329 328 326 325 323 322 320 318 316 312 312 312 312 312 315 317 318 318 316 323 320 318
316 317 317 317 317 318 320 321 324 329 328 329 329 335 333 334 335 334 331 329 329 329 328 327 325 324 320 318 316 313 312 311 312 311 311 313 314 317 318 317 319 319 317
316 315 316 315 317 325 326 325 324 328 328 326 327 331 335 333 333 334 331 330 329 328 327 325 324 321 318 317 315 313 313 312 311 310 311 311 311 312 315 315 313 312 311
320 317 318 323 323 326 327 329 327 329 327 325 329 330 335 335 335 333 331 330 330 327 326 325 323 321 316 314 312 312 313 311 311 308 309 310 311 309 310 312 311 309 307
323 322 321 325 326 330 332 329 326 324 327 327 328 330 334 334 333 332 331 330 329 326 325 323 321 318 315 314 309 308 312 312 311 309 309 308 308 308 307 307 307 307 307
324 325 326 326 327 330 329 326 323 321 323 325 329 332 334 334 332 331 330 329 328 326 324 323 319 315 313 312 310 313 313 312 310 309 309 308 307 306 306 305 305 305 305
326 326 326 326 327 331 331 330 326 325 323 326 329 333 334 334 333 331 331 328 327 324 323 321 318 314 313 312 311 311 308 308 309 309 308 307 308 307 305 306 305 304 304
325 326 327 328 329 330 331 331 329 326 326 324 327 329 332 333 333 331 330 328 326 324 320 319 317 315 310 312 313 307 302 302 305 309 307 308 308 306 306 305 304 304 304
328 330 330 330 330 330 332 331 328 323 323 327 329 330 331 333 332 330 328 327 324 322 321 319 316 314 313 310 309 308 308 307 300 300 306 306 306 305 306 304 304 304 304
329 329 331 331 330 332 333 332 331 327 327 329 330 330 331 331 330 327 326 325 323 321 320 318 315 313 312 308 309 308 307 307 306 302 299 302 304 304 304 303 303 303 303
326 330 333 329 329 331 332 332 332 330 329 330 331 328 327 327 327 326 324 323 323 320 318 315 313 312 308 308 304 306 305 302 303 302 299 300 300 302 303 303 302 302 302

GFSSE_sfc_thetae_048.txt.gz
Theta_e
339 346 349 350 350 349 349 348 348 348 348 348 347 346 345 345 345 345 346 348 348 346 341 341 340 339 339 337 337 338 340 340 339 339 339 336 336 336 336 339 339 337 341
337 348 348 349 350 350 349 348 348 347 347 347 345 344 344 344 345 346 347 347 347 344 340 339 338 337 336 336 337 338 339 339 339 338 338 336 336 336 337 335 337 334 338
330 348 349 348 349 349 349 348 348 347 346 346 344 344 343 345 345 345 345 346 346 342 339 339 338 336 334 335 337 337 337 336 338 339 336 329 330 335 336 336 336 335 335
340 345 348 347 348 348 347 347 346 346 345 344 344 343 344 345 345 345 344 344 345 343 339 339 337 335 334 336 336 336 337 337 338 335 325 325 328 334 334 334 334 334 332
341 345 346 345 346 347 346 345 344 344 343 342 342 344 344 345 346 346 344 344 345 344 339 338 336 335 335 336 335 335 335 334 335 327 322 323 323 329 331 331 331 331 330
339 343 342 341 343 345 345 344 343 342 341 341 342 343 344 345 347 346 345 344 345 343 338 336 335 334 336 334 333 334 334 334 332 322 322 326 323 329 329 329 329 329 329
340 342 342 340 342 343 344 343 342 341 340 342 342 342 343 344 346 346 344 344 344 341 338 335 334 335 334 332 332 332 332 331 322 320 320 322 322 328 328 328 328 328 328
340 341 341 342 341 341 341 341 340 340 341 341 341 341 342 341 341 343 343 343 341 339 338 337 336 335 333 331 330 329 330 331 324 320 320 320 328 327 327 326 326 326 326
338 339 339 338 338 337 337 337 338 339 340 340 340 340 339 337 338 340 341 341 339 337 336 335 334 333 332 330 328 327 329 330 323 320 320 319 327 326 325 325 325 324 324
333 332 331 333 333 333 334 336 337 338 338 338 338 336 335 335 336 337 337 337 336 336 335 334 333 332 330 328 326 324 326 326 318 320 320 322 326 325 324 323 323 323 323
328 328 328 328 329 330 332 336 337 338 337 335 335 333 329 326 326 329 334 335 335 334 333 332 331 329 327 325 325 325 325 317 316 319 322 329 327 325 324 322 322 322 322
320 323 326 325 323 324 329 331 334 334 332 331 329 328 325 325 327 328 332 332 333 332 331 330 329 327 325 316 316 323 315 316 315 318 320 327 327 325 324 322 321 322 321
319 318 319 322 322 323 324 326 328 328 328 329 328 329 330 326 327 328 327 325 326 328 322 322 323 321 321 320 318 316 316 314 311 312 319 323 323 326 324 322 321 321 320
318 316 317 320 320 320 321 323 324 327 327 326 327 331 330 327 326 326 325 326 323 322 319 321 320 323 320 320 317 316 314 310 307 309 315 320 320 319 324 323 321 321 319
313 316 318 319 320 319 319 321 323 325 326 325 325 330 329 327 327 326 326 326 325 326 323 324 322 320 319 317 316 314 310 308 308 308 309 318 319 316 315 323 323 322 319
312 314 317 318 319 319 317 317 320 324 325 322 323 329 329 329 327 328 330 329 329 326 325 323 321 319 318 316 314 310 308 307 307 306 309 310 317 319 317 316 322 322 320
312 314 316 317 319 318 318 320 321 323 326 328 328 329 330 332 329 330 328 329 326 326 325 323 321 320 317 316 312 309 308 307 307 306 306 308 312 318 319 320 321 321 319
313 316 316 318 316 317 318 320 320 322 326 327 327 329 330 331 330 329 329 327 327 325 323 322 320 318 316 313 309 308 307 306 306 305 306 306 308 311 316 318 316 314 313
315 315 314 315 315 315 318 314 316 320 324 325 326 327 331 331 332 330 329 328 327 324 323 322 320 318 313 310 309 307 306 306 306 307 305 306 305 305 309 315 315 313 311
317 317 315 314 314 319 321 314 318 322 324 325 324 325 330 331 332 330 329 327 325 323 322 321 318 316 313 310 309 306 307 307 306 305 305 305 304 303 302 304 306 307 312
315 316 315 313 316 321 321 319 321 319 322 323 324 325 331 330 331 329 328 327 324 323 321 321 317 313 308 307 304 306 307 308 306 305 305 303 303 303 302 300 300 300 305
317 317 319 320 320 323 323 324 324 322 321 323 324 327 331 330 330 329 327 325 324 323 321 318 315 310 310 308 304 305 302 303 305 306 304 303 302 303 303 302 301 300 299
320 320 321 322 322 324 327 327 326 324 321 319 322 328 330 331 330 329 328 326 324 323 319 317 315 312 307 306 307 304 299 298 298 303 303 303 303 301 301 301 301 301 299
322 324 325 324 324 324 328 327 326 321 318 319 321 326 329 330 329 329 329 327 324 322 318 316 315 312 309 305 306 307 305 303 295 294 300 301 303 301 300 301 299 300 299
325 325 325 325 325 327 327 328 325 324 321 324 322 326 327 328 329 328 327 325 323 321 320 317 315 313 308 306 306 304 305 305 301 297 293 297 300 300 300 300 299 298 299
326 327 326 326 326 328 328 327 326 324 324 323 325 325 326 326 327 326 326 323 322 320 319 317 313 310 305 305 304 302 301 301 299 299 296 295 295 297 300 300 298 297 298

GFSSE_sfc_thetae_051.txt.gz
Theta_e
330 346 348 350 350 349 349 348 348 347 348 348 347 346 346 346 347 348 347 344 344 344 341 339 340 340 339 338 338 340 341 340 339 339 339 337 337 337 338 338 340 337 341
332 338 346 348 349 349 349 348 347 347 347 346 346 345 345 346 348 348 346 344 344 342 339 337 336 338 338 338 339 340 340 339 338 338 337 336 337 337 335 336 338 336 339
333 341 343 346 349 349 349 348 347 347 346 345 345 345 346 347 347 347 344 342 342 342 338 335 336 336 336 336 339 339 338 337 337 337 334 327 328 335 336 334 335 335 336
331 331 339 344 347 348 348 347 347 346 345 344 344 346 346 346 347 347 342 341 342 342 337 334 335 336 336 336 337 337 336 334 333 331 324 324 327 333 333 333 332 332 333
337 339 343 344 345 347 347 346 345 344 343 343 344 345 346 346 346 346 342 341 342 341 336 334 335 335 335 335 335 334 336 333 330 325 320 320 323 329 331 330 330 331 331
339 342 342 342 344 346 346 345 344 342 341 342 343 344 346 346 346 345 343 341 342 340 335 334 333 333 334 333 332 333 333 330 327 319 320 324 322 329 330 329 329 328 329
339 340 341 340 342 343 343 344 342 341 341 342 342 344 345 346 345 344 343 341 340 339 335 333 332 333 333 331 332 332 332 328 320 319 318 319 321 328 328 327 327 326 325
337 338 339 342 337 339 341 341 340 341 341 341 342 344 345 345 344 344 343 340 339 338 337 335 334 333 331 330 331 330 330 327 321 319 318 318 327 327 327 326 326 325 324
338 337 338 339 339 337 337 338 339 340 340 340 340 340 341 341 342 343 341 339 338 337 336 335 333 331 329 328 328 327 327 327 317 318 320 318 327 326 326 325 325 324 324
334 335 334 335 335 335 334 336 338 338 338 338 337 336 336 338 340 339 338 337 337 336 335 334 332 330 327 325 324 325 326 325 317 318 319 321 326 325 324 324 324 323 323
327 329 328 328 329 330 333 337 337 338 336 335 335 333 330 331 333 332 334 335 335 334 333 332 330 328 326 323 322 324 321 317 319 320 320 328 327 325 324 323 323 322 322
323 325 325 326 326 327 332 334 334 333 330 328 326 322 323 324 328 331 332 333 332 331 331 330 328 326 323 313 314 318 312 314 317 318 320 329 327 325 324 322 322 322 321
321 324 323 322 322 325 327 326 330 329 328 326 324 324 324 326 326 326 326 327 326 327 322 323 322 317 316 315 312 311 308 308 309 313 322 326 326 326 324 322 322 321 320
316 319 319 320 321 321 319 318 323 325 325 323 325 326 324 324 323 322 322 322 321 319 315 315 315 317 316 314 313 310 306 304 306 308 315 322 324 324 325 323 322 321 320
314 317 318 320 319 320 320 321 322 325 322 323 325 327 325 324 322 322 322 321 320 318 314 316 317 317 315 313 311 308 306 304 306 307 307 318 319 318 319 325 323 322 320
316 316 318 318 318 318 318 316 317 322 320 321 322 326 326 324 325 322 323 323 320 321 319 319 317 315 314 312 309 306 305 304 303 306 305 308 317 319 317 318 323 323 321
315 316 316 316 317 316 318 318 319 321 323 321 321 324 326 327 324 324 325 325 326 322 321 318 317 315 313 313 308 305 305 304 303 303 306 306 310 317 320 322 320 324 321
315 315 316 317 316 316 317 318 319 319 322 322 322 324 325 327 327 324 323 323 323 322 320 318 316 314 312 309 305 304 304 303 302 303 304 306 306 311 316 319 321 320 319
315 315 315 316 316 316 317 317 317 319 319 320 321 323 325 326 328 323 325 323 322 320 319 318 316 314 311 307 305 304 303 303 302 304 303 303 302 308 309 316 316 316 314
314 314 315 315 315 316 317 316 316 316 315 319 320 321 326 325 326 326 325 323 322 319 318 317 315 313 310 307 308 304 302 303 303 301 301 303 302 303 306 307 307 307 314
312 311 312 312 313 314 314 313 312 312 316 316 319 320 323 326 327 326 324 323 322 319 317 317 314 311 306 304 301 300 302 302 303 302 301 300 300 300 299 301 299 298 304
312 312 311 312 312 312 317 312 311 315 317 320 320 319 323 327 327 326 324 322 320 319 318 316 312 307 306 303 300 301 299 301 302 302 301 301 299 300 300 299 299 298 300
311 311 311 311 312 314 319 317 315 318 317 314 316 318 322 328 326 326 324 323 320 319 317 313 311 308 305 304 304 302 297 296 296 300 301 301 299 298 299 299 299 298 297
311 314 314 312 312 316 320 318 316 317 316 316 314 317 325 326 325 326 325 323 320 320 317 314 314 311 309 304 305 305 301 301 295 293 300 301 299 299 298 298 298 298 298
314 314 316 316 315 318 320 320 320 320 319 316 316 317 324 324 324 324 324 323 321 322 319 316 314 312 310 307 304 303 302 303 302 298 292 297 299 299 298 298 298 296 297
317 316 317 317 318 319 320 321 323 323 321 317 316 318 323 323 324 326 326 323 322 319 318 315 312 311 307 306 304 303 302 300 300 299 296 293 295 295 298 298 297 296 295

GFSSE_sfc_thetae_054.txt.gz
Theta_e
342 347 348 350 349 349 348 347 347 346 346 347 346 347 348 348 346 345 344 344 344 342 339 340 341 340 339 338 338 339 340 339 339 339 338 336 338 339 339 339 339 336 340
336 345 345 347 349 349 348 347 346 346 346 346 346 347 348 347 345 344 344 343 342 341 339 340 340 339 339 338 340 340 339 338 336 337 337 337 335 336 337 337 339 336 337
337 343 344 344 348 348 348 348 347 346 346 346 346 348 348 346 344 343 343 342 340 341 339 339 338 338 338 338 339 339 338 337 335 335 333 326 328 334 334 334 336 336 335
333 342 342 344 346 347 347 347 346 346 346 345 347 347 348 345 344 343 342 340 339 340 339 338 338 336 334 336 337 338 335 333 332 328 322 324 326 332 332 332 332 331 331
332 337 343 343 343 344 347 346 345 344 344 345 346 347 348 345 344 343 341 340 339 339 338 338 336 334 334 335 335 334 333 332 330 323 318 320 323 328 330 331 329 330 328
333 336 334 339 343 344 346 345 343 342 342 344 344 346 347 344 344 342 340 339 339 338 336 335 334 332 333 334 334 334 331 330 325 316 317 324 322 329 330 328 328 327 328
337 338 339 340 341 343 343 343 342 341 342 343 343 344 345 344 343 341 340 339 338 337 334 332 332 333 332 334 333 331 329 328 318 315 316 318 321 328 328 327 326 326 325
338 339 338 340 340 340 340 336 339 341 341 342 343 343 344 344 341 341 339 338 338 337 335 334 333 332 332 332 332 329 327 326 320 317 317 318 326 327 327 326 325 325 324
336 336 333 336 339 337 336 334 335 339 341 342 342 342 342 342 340 340 339 338 337 336 334 333 331 331 331 330 330 329 326 325 315 317 318 317 326 326 326 326 324 323 323
334 335 334 334 335 332 332 332 333 338 338 339 340 340 339 340 339 338 337 337 336 334 333 332 330 329 329 328 328 327 325 323 315 316 317 321 326 326 325 324 324 323 322
329 332 332 330 329 329 329 329 332 338 337 337 338 337 335 336 335 332 334 334 334 333 331 330 329 327 323 325 326 325 322 316 317 317 318 328 326 325 325 323 323 322 321
323 325 328 328 326 324 325 330 333 334 331 330 328 329 328 329 330 331 332 332 331 330 330 328 327 325 319 312 312 319 314 317 317 318 320 328 327 325 324 323 322 321 320
323 323 325 326 326 324 323 325 332 329 326 323 323 324 328 329 327 327 327 326 326 326 322 321 317 314 315 312 309 309 311 313 313 316 323 328 327 325 324 323 322 322 320
321 321 322 324 324 324 328 330 328 326 323 322 323 323 324 323 322 323 323 323 321 319 317 315 313 315 313 312 309 305 307 307 308 310 318 324 327 325 325 322 323 322 321
318 318 319 320 321 320 319 324 326 324 323 324 324 323 322 319 319 320 320 319 317 317 312 313 315 315 311 311 308 305 303 305 304 306 307 320 323 325 325 325 324 322 321
317 317 319 319 318 320 317 319 323 323 322 324 324 323 321 319 319 319 318 317 316 316 314 315 315 313 311 309 305 304 303 304 305 304 305 308 317 319 320 321 324 324 322
317 317 317 316 319 318 317 318 320 321 321 322 322 324 323 322 321 320 321 321 319 318 317 317 315 314 311 310 306 303 303 302 304 304 303 305 310 317 319 321 320 323 323
315 315 317 319 317 317 316 316 318 319 321 320 320 323 324 325 323 323 323 323 323 321 318 316 315 313 311 309 304 302 302 302 301 301 305 305 305 311 316 321 324 325 322
314 314 314 316 315 316 316 316 317 317 319 320 319 322 323 324 326 323 323 322 322 320 318 317 314 313 310 307 305 302 301 301 300 302 303 305 304 307 308 317 318 318 319
314 314 314 315 315 316 316 316 316 316 316 318 319 318 322 323 323 323 323 322 321 318 316 315 314 313 311 308 307 304 300 301 300 300 301 303 302 306 307 308 308 308 315
314 314 313 314 315 316 314 313 313 312 313 314 317 318 318 322 322 322 323 321 320 319 317 316 314 311 307 305 301 299 300 301 300 300 299 299 300 304 304 304 303 302 304
311 312 313 312 313 315 315 314 312 312 311 315 316 317 318 321 323 323 322 321 320 318 316 315 312 307 307 302 301 301 301 301 301 301 299 300 298 298 299 301 300 299 298
310 310 312 312 312 313 315 313 309 309 314 314 315 315 317 320 322 323 323 321 319 318 316 314 311 309 307 305 304 304 299 297 296 298 300 299 298 297 297 297 298 298 298
310 311 312 312 311 312 314 314 309 309 309 313 315 316 317 320 323 324 324 321 319 319 317 315 313 310 311 306 304 305 303 302 297 296 300 300 300 300 297 297 297 297 296
312 311 311 311 312 312 312 317 312 310 312 316 315 313 316 320 323 324 323 321 320 320 320 317 315 311 311 307 305 303 303 303 301 298 294 296 300 300 299 297 298 296 297
311 310 310 309 311 312 312 315 315 312 313 315 314 312 314 320 321 323 324 322 320 320 320 319 316 314 310 307 307 305 304 302 301 300 296 296 295 296 299 300 299 297 296

GFSSE_sfc_thetae_057.txt.gz
Theta_e
342 347 348 349 349 348 347 347 346 346 346 347 347 347 347 346 345 345 344 342 342 343 341 340 339 337 338 338 338 337 339 339 338 338 339 339 339 339 340 339 339 334 339
344 346 346 348 348 348 347 347 346 346 347 348 347 346 345 344 344 344 342 341 343 343 340 340 340 339 338 337 336 336 335 337 337 337 336 335 336 337 339 338 339 337 338
342 343 342 343 343 343 345 346 347 346 347 348 347 345 345 344 344 342 341 342 343 343 340 340 340 339 339 339 338 335 334 334 334 334 332 325 326 334 335 334 334 335 336
334 336 338 339 340 340 340 344 346 346 347 348 346 345 345 344 343 341 340 341 342 342 339 338 338 337 337 338 337 333 332 331 330 328 322 323 325 333 332 331 330 330 331
331 339 339 337 336 339 339 343 345 345 346 347 345 345 345 344 343 340 339 340 342 341 338 336 334 335 338 336 334 333 331 329 328 323 318 320 322 328 331 329 329 329 327
330 338 339 337 334 340 341 343 343 344 344 345 345 344 344 343 342 340 338 339 341 340 336 332 333 335 335 334 333 331 330 328 324 316 318 324 321 329 328 328 327 326 326
329 334 339 339 340 342 343 341 341 343 343 344 344 342 343 343 341 339 338 338 339 338 334 332 335 336 335 333 331 329 328 325 316 314 316 318 321 328 328 327 326 325 325
332 336 333 340 340 339 339 339 337 340 342 343 343 341 342 341 340 339 338 337 337 335 334 333 335 335 333 331 330 329 327 325 318 315 316 318 326 327 327 326 325 324 324
334 335 335 337 336 333 331 329 329 335 341 340 340 340 340 339 338 338 337 336 334 333 332 332 332 332 333 330 329 327 325 323 314 315 318 317 326 326 327 325 324 323 322
332 331 334 334 334 330 328 329 331 336 338 338 339 340 338 338 337 336 335 334 333 332 332 331 330 331 332 331 328 326 325 322 314 315 317 321 326 326 325 324 323 322 321
331 330 332 331 330 328 327 327 331 336 338 338 339 338 335 334 332 329 332 333 332 332 331 329 327 328 330 328 328 326 321 314 314 316 318 328 326 325 325 324 322 321 321
326 328 327 327 325 325 326 326 330 333 335 337 337 335 334 329 328 329 330 331 330 330 329 328 326 323 319 315 320 321 315 316 316 317 320 328 326 325 324 323 321 320 320
325 326 325 324 324 321 319 320 327 331 331 326 325 329 329 328 328 326 325 324 324 324 319 317 313 314 311 312 311 312 315 316 316 317 323 327 326 325 324 323 322 321 320
322 324 324 323 321 321 321 319 325 327 326 325 326 328 326 324 324 323 321 320 319 317 314 314 314 313 310 308 308 309 311 310 311 313 320 326 328 324 324 324 323 322 321
320 322 323 324 322 319 318 321 326 324 323 324 325 326 325 322 320 320 319 318 316 314 313 311 314 311 310 307 304 305 305 305 306 308 310 323 325 327 324 323 323 323 321
319 319 321 321 323 322 323 325 323 320 321 323 324 323 321 320 320 318 317 317 314 313 313 313 314 310 309 305 303 302 303 303 303 303 305 308 317 322 324 325 324 324 322
318 318 318 319 320 320 321 321 322 321 323 322 321 321 319 319 318 318 317 317 315 314 312 314 313 311 308 306 303 302 302 303 303 302 303 305 310 316 317 320 325 324 323
317 317 318 320 318 319 320 320 320 320 322 321 322 322 320 320 320 318 319 318 318 316 314 314 313 311 308 308 303 301 300 300 302 303 302 304 306 309 316 319 321 321 324
316 316 317 317 316 316 317 317 317 318 319 320 322 322 322 322 322 321 321 321 320 319 316 315 313 311 308 307 304 301 300 300 299 302 303 304 303 307 307 318 321 322 324
315 316 316 316 316 316 315 316 316 316 317 318 318 321 323 323 323 322 321 321 322 319 317 314 313 311 310 307 308 303 299 300 299 298 300 304 303 305 306 308 310 311 318
313 313 314 314 315 315 314 313 313 312 314 315 318 319 320 322 321 321 321 320 319 317 316 315 312 310 307 305 301 299 299 300 299 298 298 300 300 303 304 305 304 303 307
312 313 313 314 314 315 314 314 313 312 312 315 316 316 318 318 320 320 321 320 320 318 315 313 311 308 308 303 301 301 296 299 300 300 298 298 298 299 303 303 302 301 300
312 312 312 313 313 314 315 313 311 311 311 313 314 315 316 317 319 320 320 319 317 316 316 313 312 309 308 303 304 305 300 298 299 300 301 301 298 296 297 298 300 299 298
311 312 312 311 311 312 315 313 311 309 309 309 312 314 315 317 317 319 320 319 318 318 316 315 314 310 310 306 305 307 304 304 299 299 301 301 301 300 297 298 296 297 297
311 308 311 311 311 312 312 313 310 307 307 309 312 313 313 315 317 319 320 319 318 319 318 316 313 310 309 310 308 305 305 303 303 300 295 299 300 301 301 298 297 297 296
309 309 309 310 311 311 310 312 312 308 307 308 310 311 312 313 316 318 320 320 319 319 317 317 316 313 312 311 308 307 306 304 302 300 297 297 297 299 296 298 298 298 298

GFSSE_sfc_thetae_060.txt.gz
Theta_e
340 345 347 349 348 348 347 347 347 347 348 349 348 348 348 347 347 346 345 344 344 344 341 340 340 339 339 339 337 337 338 339 340 341 341 340 340 339 339 340 339 335 340
342 344 345 347 347 347 347 346 347 347 348 348 348 347 347 346 345 344 343 343 343 343 339 338 338 338 338 338 338 337 338 337 337 337 338 339 339 339 339 338 339 336 339
341 343 345 345 346 347 347 347 347 348 348 348 347 346 346 345 343 343 343 343 343 343 340 339 339 338 337 336 336 335 334 334 335 334 332 326 330 336 335 334 335 336 335
342 341 341 344 345 346 346 346 347 348 348 347 346 345 345 344 343 344 343 342 343 343 341 340 340 339 337 336 335 333 332 332 330 328 322 324 326 332 330 330 330 330 331
336 336 339 342 342 343 344 345 346 347 346 345 345 345 344 343 344 343 342 341 342 342 340 340 340 338 335 335 334 332 331 329 328 323 320 321 325 330 331 329 328 329 329
329 335 335 336 339 340 340 344 345 345 344 343 344 344 344 343 343 342 341 341 342 341 338 338 339 336 334 333 332 330 329 328 324 318 320 325 323 329 329 328 327 327 326
328 332 337 334 339 340 341 343 343 344 343 342 343 343 342 341 342 341 340 339 338 337 336 338 335 335 333 332 331 329 328 325 317 316 317 319 323 328 328 327 326 325 325
327 331 335 336 339 339 340 339 339 340 340 341 341 341 341 339 339 340 339 337 335 336 337 338 335 334 332 331 329 328 327 325 318 316 318 320 327 327 328 326 325 324 324
329 331 335 335 337 336 335 333 334 336 339 340 340 340 339 338 337 338 337 335 335 336 337 336 334 332 332 330 329 327 325 323 315 317 319 320 327 327 326 325 324 323 322
331 332 332 332 329 328 329 331 330 330 337 339 339 339 338 337 336 335 333 333 333 333 335 335 333 331 330 329 328 326 325 322 315 316 318 323 327 327 326 324 323 322 321
329 329 331 329 327 326 325 327 328 330 334 336 338 337 334 332 329 325 329 331 331 331 331 332 332 331 329 328 327 326 320 315 316 317 319 327 327 326 325 324 322 321 321
325 329 329 329 325 325 324 323 321 326 326 331 336 333 331 327 324 326 329 330 328 328 328 331 331 329 324 319 321 320 315 316 316 317 320 327 326 326 325 323 322 321 320
325 325 325 325 325 324 323 324 326 326 327 330 334 332 328 327 327 324 323 323 321 323 317 318 317 315 315 313 314 315 316 316 316 318 324 327 326 325 324 323 322 321 319
324 323 324 325 324 323 322 322 326 325 326 326 329 329 327 325 322 319 320 317 315 313 312 314 312 311 311 312 313 314 314 314 314 316 322 326 327 325 325 324 323 322 319
321 322 322 322 319 319 319 321 325 325 325 327 328 328 325 322 319 319 319 317 314 312 312 312 310 309 308 308 310 310 310 311 311 313 315 325 326 326 324 325 325 323 322
321 321 322 320 320 320 317 322 323 323 322 325 327 326 323 321 319 318 317 314 312 311 312 313 310 309 307 305 305 306 305 305 306 306 309 314 322 325 326 324 324 325 323
320 321 320 322 321 320 319 323 321 322 323 323 324 321 319 319 318 317 317 315 314 311 313 314 311 309 306 304 303 303 304 303 303 303 305 306 310 316 319 325 326 324 324
318 319 320 321 321 321 322 321 320 321 322 322 321 320 319 319 318 316 316 316 315 313 313 313 311 309 307 305 302 302 302 303 304 303 303 305 307 308 315 318 321 326 325
318 318 318 318 319 320 321 319 319 319 320 321 321 319 319 319 319 317 317 317 316 315 313 314 312 311 308 308 304 302 301 301 302 303 303 304 305 308 309 316 319 320 324
317 318 317 316 316 317 318 317 316 317 318 320 320 320 321 320 320 318 319 319 318 317 315 314 313 311 310 308 308 304 301 301 300 300 302 304 304 307 307 310 315 316 321
315 315 315 314 315 315 316 315 315 314 314 316 318 321 322 322 322 321 321 320 320 318 317 316 313 311 309 307 304 302 301 301 300 300 300 301 303 304 305 307 308 308 312
312 314 314 314 315 315 318 318 315 314 313 315 316 317 320 321 321 321 321 320 319 318 316 314 312 310 309 305 303 300 299 300 301 301 300 299 300 302 304 305 305 305 304
311 312 314 314 314 315 315 314 311 311 313 312 313 314 316 317 318 320 319 320 318 318 315 313 312 310 308 305 304 306 299 298 299 300 301 300 300 300 300 303 303 303 303
312 313 313 314 314 314 314 314 311 312 311 311 312 314 315 317 316 318 318 317 317 316 315 314 314 311 309 306 303 305 306 305 300 299 300 301 302 300 300 300 300 301 301
312 312 312 311 313 314 312 312 310 306 309 309 313 313 314 315 315 316 317 317 317 317 316 314 312 310 309 307 304 303 304 304 304 303 300 301 301 302 302 300 299 299 299
308 310 311 309 310 312 312 312 311 309 307 306 307 309 311 312 313 315 316 316 316 316 316 316 314 314 313 312 309 308 306 304 303 302 300 299 299 300 300 301 300 300 300

GFSSE_sfc_thetae_063.txt.gz
Theta_e
342 347 347 348 349 350 350 349 348 349 349 349 348 348 349 349 349 348 348 347 346 347 344 343 343 341 339 340 341 340 342 343 342 342 342 342 341 341 340 341 341 339 342
344 346 344 347 349 349 350 349 349 349 349 349 348 348 348 348 347 346 345 345 345 345 341 340 340 338 338 338 338 338 337 338 340 341 341 340 340 340 340 340 340 339 339
343 345 346 345 347 348 349 349 349 349 349 348 348 347 347 346 345 344 343 343 343 343 339 339 339 339 338 337 338 337 335 336 336 337 338 333 333 337 336 337 337 336 336
344 345 345 345 346 347 348 348 348 349 349 348 347 347 346 345 345 344 343 342 342 342 339 338 337 337 337 336 336 334 333 332 332 333 330 330 329 333 334 332 332 332 332
344 345 345 344 345 346 347 347 347 347 346 346 346 346 345 345 345 344 342 342 342 343 340 338 336 336 335 335 335 334 332 331 331 330 328 329 328 329 331 331 330 329 329
339 342 341 340 342 345 346 347 346 345 344 344 344 344 345 345 345 343 342 342 343 342 342 338 336 335 335 333 333 332 331 330 329 327 328 330 327 329 330 328 328 327 327
335 340 341 335 340 343 346 347 345 344 343 343 343 342 343 344 343 342 341 341 341 341 341 337 333 333 333 332 332 330 329 329 326 326 327 327 328 329 329 328 327 326 325
335 340 339 335 339 340 342 342 343 342 342 342 341 341 342 342 341 340 340 338 338 340 339 336 334 333 332 331 329 329 328 327 326 326 326 326 329 328 328 327 325 325 324
335 334 340 338 339 338 338 337 339 340 341 340 340 339 339 338 338 339 337 337 338 339 337 335 333 332 331 330 329 328 326 327 325 325 325 326 327 327 327 326 325 324 323
332 334 339 337 339 338 337 333 336 337 338 339 338 337 336 336 337 337 335 337 338 338 336 333 332 331 331 329 328 327 326 326 325 325 325 326 327 327 326 325 324 323 322
332 334 336 333 335 336 334 334 335 334 336 337 337 336 334 338 335 331 331 335 337 335 333 332 332 330 329 328 327 325 324 324 325 325 325 328 327 327 325 324 323 322 321
325 329 330 329 329 329 327 327 329 331 331 333 336 336 334 333 330 327 331 331 332 333 332 331 331 329 326 324 324 323 323 324 324 325 325 328 327 326 325 324 322 322 321
326 327 329 324 324 324 322 322 326 329 330 331 334 333 332 328 330 330 328 328 330 331 330 329 327 325 324 323 322 322 324 324 324 325 325 327 327 326 325 324 322 321 320
324 324 324 324 323 323 322 321 322 324 326 328 330 334 330 326 327 326 324 324 324 325 328 328 324 325 324 323 323 323 323 323 324 325 326 326 327 326 325 324 323 321 320
323 324 324 325 324 323 322 323 324 324 326 326 329 332 327 324 324 325 323 322 321 322 323 322 323 322 322 322 322 322 322 323 325 325 326 326 326 327 326 325 324 323 321
322 322 323 323 322 323 322 324 326 326 326 326 330 332 329 325 325 324 322 321 321 321 321 321 321 321 320 321 320 320 319 321 323 324 324 326 325 326 327 326 325 325 324
321 321 320 320 320 319 323 324 325 325 325 325 330 331 327 325 326 325 323 321 321 321 320 319 318 317 315 315 316 315 315 316 316 317 319 323 323 321 322 327 326 326 325
321 320 321 321 319 319 323 322 324 324 326 325 326 328 326 326 325 324 322 322 322 323 322 319 317 315 313 311 311 311 312 312 313 312 313 313 315 315 317 320 325 327 325
320 320 320 320 320 320 321 322 322 324 325 325 323 324 325 325 325 324 322 322 323 322 322 320 318 317 314 311 311 311 311 311 312 309 311 312 314 314 314 316 318 321 326
319 319 319 321 320 321 320 322 321 320 324 325 324 322 324 323 323 323 323 323 323 321 322 322 320 319 316 315 311 309 310 309 309 310 311 311 313 314 315 315 316 316 319
317 317 318 317 319 320 318 317 317 318 323 324 324 322 324 323 323 325 325 324 324 323 322 321 321 319 317 316 313 312 312 309 309 309 310 310 311 312 314 315 316 317 318
316 317 317 316 317 319 320 320 319 321 321 322 323 323 323 323 324 325 325 325 324 324 322 322 321 320 320 316 315 313 311 311 310 310 309 308 309 311 312 312 313 313 315
314 316 316 316 316 317 319 316 315 315 316 318 320 321 323 325 325 326 326 325 325 326 323 323 322 320 319 316 316 318 309 310 312 311 310 309 310 309 309 306 308 313 313
315 318 318 316 316 316 317 316 316 316 314 318 318 322 321 323 324 324 324 324 325 326 324 323 323 323 322 318 314 313 315 315 311 310 311 307 306 308 303 304 309 309 308
315 316 317 316 317 316 316 316 313 315 317 315 315 318 319 320 321 322 321 323 324 325 326 326 324 322 322 321 318 314 313 313 314 310 308 308 305 309 305 305 307 306 306
314 316 317 316 317 316 315 316 315 314 313 313 312 314 316 320 320 321 321 323 325 325 325 325 326 324 322 321 319 317 316 309 311 307 306 309 303 307 308 308 307 304 305

GFSSE_sfc_thetae_066.txt.gz
Theta_e
344 350 348 350 351 351 350 348 348 349 350 350 349 349 348 349 349 348 348 348 347 348 345 344 345 343 343 343 343 343 344 343 343 343 343 342 343 342 342 343 342 341 342
347 349 346 349 351 351 350 349 349 349 349 349 348 349 348 349 349 348 348 347 347 346 344 342 341 342 342 341 340 342 343 342 341 341 342 341 341 341 341 341 341 339 340
345 347 347 347 350 351 350 349 350 350 350 349 349 349 349 349 348 347 346 345 345 346 342 340 339 341 340 339 339 339 338 339 339 340 340 337 336 338 338 338 338 337 337
346 346 345 346 348 350 350 350 349 350 349 348 348 348 348 348 347 346 344 343 343 344 341 340 338 338 338 337 337 336 335 336 336 338 331 333 334 335 335 334 334 334 333
345 346 346 345 344 348 348 348 348 348 347 347 347 348 347 346 345 344 342 341 342 342 339 338 339 337 336 336 336 335 334 335 334 331 329 330 332 332 333 331 331 331 331
345 344 343 342 343 345 348 348 348 346 345 345 345 346 346 346 345 343 341 341 342 341 337 337 337 336 336 335 334 333 333 333 333 329 329 330 330 331 331 330 329 328 327
345 344 347 340 340 339 343 346 347 345 344 344 344 344 345 345 344 342 341 341 341 340 337 336 335 334 334 333 332 331 331 331 329 328 328 329 330 329 329 328 327 327 326
340 345 345 339 337 337 340 344 344 343 343 343 342 343 344 343 342 342 341 341 341 339 336 336 334 333 332 331 330 329 329 330 328 328 328 328 330 329 328 327 326 326 325
338 342 342 341 340 338 337 339 340 341 341 340 341 341 341 340 340 340 340 340 340 337 335 335 334 333 331 330 329 328 328 330 328 327 327 327 328 328 328 326 325 325 324
338 337 341 343 340 342 344 336 337 339 338 339 340 339 338 338 337 337 337 339 339 337 335 334 333 332 330 329 328 327 327 328 328 327 327 328 328 328 327 326 324 324 323
338 339 342 340 340 338 340 339 338 338 337 337 338 336 335 338 336 335 335 337 336 334 333 333 332 331 329 329 328 327 327 327 328 327 327 328 328 327 326 324 323 323 322
329 333 339 338 339 338 336 338 338 335 335 336 335 335 336 337 336 331 335 335 334 332 332 331 330 329 326 325 325 325 325 327 327 327 327 328 327 327 326 324 323 322 321
329 333 335 335 332 333 336 330 332 332 333 332 334 334 336 336 332 332 336 336 334 330 328 328 327 326 325 324 323 324 326 327 327 326 326 328 327 326 325 324 323 321 320
328 327 328 330 326 326 326 328 327 326 328 329 329 332 332 330 331 331 332 332 331 330 329 328 327 328 327 325 324 325 326 326 327 326 327 327 328 326 325 324 323 322 320
326 325 327 324 323 323 324 326 325 325 326 327 327 329 333 329 329 328 331 332 331 332 331 329 328 327 325 325 324 323 324 325 327 326 327 326 327 327 326 325 324 322 321
326 325 324 324 324 323 322 325 324 325 325 327 327 328 331 329 328 326 327 326 328 330 330 328 327 325 324 324 323 323 322 324 325 327 326 326 326 327 327 326 326 324 323
325 324 324 324 323 322 322 323 324 326 326 326 326 329 332 330 329 328 325 325 326 328 328 327 326 325 323 322 322 322 320 322 322 323 324 326 325 324 326 328 327 326 325
323 320 323 322 322 323 322 323 325 324 324 325 326 327 329 328 328 327 325 325 327 326 325 324 324 323 322 321 319 318 318 318 319 320 320 322 323 323 322 324 327 328 326
326 323 322 321 319 322 323 326 326 325 324 326 327 327 326 327 328 325 324 325 328 325 324 323 323 323 320 319 317 317 317 316 316 315 315 317 318 318 320 321 322 325 326
321 323 322 322 319 323 325 324 325 324 324 325 325 326 327 325 326 325 324 325 326 326 326 324 324 324 322 320 316 315 316 316 317 316 316 316 317 318 318 318 318 319 322
319 319 321 319 319 323 322 320 320 321 323 322 322 324 327 325 326 328 325 325 326 325 327 327 326 324 322 323 318 317 316 316 316 316 317 316 316 317 318 318 318 318 317
319 320 319 320 322 321 322 321 323 324 323 323 322 323 325 327 324 324 326 324 326 325 326 327 326 323 324 323 320 321 316 317 317 316 316 315 317 316 315 316 318 318 318
318 319 319 319 320 323 322 322 319 320 320 322 322 322 323 325 322 323 326 326 327 327 325 326 326 325 322 324 325 321 315 313 320 321 319 318 317 314 311 314 315 315 315
317 320 322 320 319 320 321 319 319 315 313 323 323 323 321 325 323 323 327 328 328 328 326 327 327 326 326 322 323 323 325 322 315 313 318 318 318 314 312 310 308 309 314
321 319 322 321 319 319 319 318 317 315 316 321 321 323 320 323 325 325 327 328 327 329 328 330 327 328 327 327 323 323 322 322 322 317 314 317 315 314 312 307 310 310 313
321 322 321 322 320 319 318 319 317 320 320 320 318 320 319 320 323 323 324 326 327 327 327 327 329 330 328 328 327 326 323 320 318 318 313 317 316 308 309 311 311 310 312

GFSSE_sfc_thetae_069.txt.gz
Theta_e
342 351 349 351 352 350 350 349 349 349 350 350 349 349 350 349 348 348 348 348 348 349 348 346 346 345 345 344 344 346 345 344 344 344 344 344 344 343 343 343 342 340 343
346 352 347 350 352 351 351 349 349 350 350 350 349 349 349 348 348 348 348 348 348 348 345 345 344 344 344 343 344 344 343 342 342 343 344 343 342 342 341 342 341 339 341
346 352 349 348 350 351 351 350 350 350 350 350 349 349 349 349 348 348 347 346 347 346 342 343 343 343 343 341 341 342 342 342 342 342 341 336 337 339 339 338 339 337 337
345 348 348 347 349 350 349 349 350 351 350 349 349 350 349 349 348 347 346 345 345 344 341 343 343 341 339 338 339 339 339 340 341 340 333 335 333 337 337 336 335 335 335
346 346 347 346 348 349 349 349 349 349 347 348 348 350 349 349 347 346 344 344 344 343 340 341 340 339 337 338 337 336 336 334 335 334 331 332 333 333 334 334 333 332 332
346 345 342 344 346 347 348 348 348 347 346 346 347 348 348 347 346 344 342 342 343 343 342 338 338 337 336 336 335 334 333 333 334 329 329 332 330 332 332 331 330 329 329
348 347 345 341 343 344 346 344 344 346 345 345 346 346 345 345 344 342 341 341 341 341 340 337 336 335 335 334 334 332 332 331 328 327 328 328 329 330 330 329 328 328 327
347 348 348 342 342 341 340 337 329 342 344 344 344 344 344 343 342 341 340 339 339 338 338 336 335 334 333 333 331 329 329 331 328 327 327 327 330 329 329 328 327 326 326
346 347 346 346 342 337 331 329 327 332 342 342 342 342 342 340 340 341 341 339 337 337 336 335 334 333 332 331 330 328 328 330 328 326 326 326 328 328 328 327 326 325 324
344 344 346 346 342 337 336 330 335 337 339 340 341 340 339 339 340 340 339 337 336 336 335 334 333 332 331 330 328 328 327 328 327 326 326 326 329 328 327 326 325 324 324
340 341 343 343 342 342 340 340 337 337 338 339 340 338 336 339 340 339 337 335 334 334 333 333 332 331 330 329 328 328 328 327 327 325 325 329 328 328 327 325 324 323 323
334 338 340 341 342 342 341 341 340 336 339 339 339 336 335 337 339 337 336 333 332 332 332 332 331 329 326 323 324 326 327 328 327 326 325 329 328 327 326 325 323 322 321
331 333 336 338 342 342 342 343 338 338 336 335 335 336 335 335 333 337 337 332 330 330 327 326 326 324 323 322 325 327 328 328 327 326 326 328 328 327 326 324 323 322 321
329 332 335 337 336 334 339 335 335 336 332 331 330 330 329 329 330 335 334 329 328 328 327 324 324 328 325 323 325 327 327 327 326 326 326 327 327 326 326 325 323 322 321
328 330 328 328 332 331 329 332 334 330 330 329 328 328 327 327 330 333 332 330 328 331 328 326 327 326 325 324 324 326 326 327 327 326 325 327 327 327 326 325 324 323 321
328 328 328 325 325 326 331 326 328 328 327 327 327 327 327 328 330 331 332 332 330 331 329 328 327 325 324 323 323 324 325 326 327 327 326 326 326 327 327 325 324 324 323
328 328 326 323 324 323 324 325 324 325 325 324 325 327 327 328 331 331 332 330 331 330 333 330 327 325 323 323 322 323 323 325 325 326 325 324 325 325 326 328 327 325 324
327 326 327 324 324 323 323 324 324 325 324 323 323 326 327 329 332 332 329 328 331 331 330 327 325 322 322 322 321 321 320 322 323 324 325 326 324 324 324 326 328 328 326
325 325 324 325 324 323 323 325 325 324 324 324 323 324 327 329 330 330 328 328 333 329 329 327 325 324 322 321 319 319 319 318 319 319 320 323 325 324 324 323 325 326 326
326 325 323 323 322 322 325 325 323 323 323 324 324 324 327 327 329 327 327 330 329 325 325 326 326 325 324 322 318 317 318 318 318 317 317 317 319 320 321 323 324 323 324
322 322 321 319 320 321 322 322 319 319 320 321 322 325 326 327 327 328 325 327 328 326 326 328 327 327 323 324 319 317 318 319 320 318 318 317 318 319 320 319 320 319 321
321 321 322 321 321 321 324 323 322 320 321 320 322 323 327 328 326 325 325 326 327 327 329 329 328 325 324 326 319 319 315 316 318 320 321 319 322 318 318 320 320 320 321
320 322 322 322 322 323 324 323 322 322 321 319 320 321 324 327 326 325 328 328 326 328 328 329 330 328 322 326 326 324 315 313 318 322 321 321 321 320 320 319 318 318 318
320 322 323 323 323 322 324 323 321 320 318 318 318 321 321 326 325 326 327 326 327 329 329 329 329 329 325 320 324 324 326 324 316 312 321 322 323 320 320 318 317 316 314
322 320 322 322 322 323 324 324 320 318 322 320 319 319 321 323 325 324 324 325 324 329 329 331 328 328 327 322 320 325 324 322 323 318 313 316 319 320 319 319 316 313 311
324 323 323 321 321 322 323 323 321 320 320 317 320 319 319 321 325 326 323 323 325 326 328 327 325 325 325 327 325 326 323 319 318 319 317 319 319 319 315 317 313 311 315

GFSSE_sfc_thetae_072.txt.gz
Theta_e
346 348 350 352 351 350 350 349 349 349 350 350 350 350 350 349 348 348 347 347 347 348 348 347 348 346 346 346 346 346 345 344 344 345 345 346 344 344 345 344 343 340 344
349 348 349 351 351 351 350 350 349 350 350 350 350 350 349 348 347 348 348 347 349 350 347 347 346 345 345 344 345 345 344 343 343 343 344 344 343 342 342 343 342 340 342
350 348 348 350 352 351 351 350 350 351 351 350 350 349 348 348 348 348 348 348 348 348 346 346 345 345 344 344 344 344 343 343 341 341 341 335 336 340 340 340 340 339 338
348 348 347 348 350 350 350 349 350 351 350 349 350 349 349 349 349 348 347 345 346 347 345 343 344 343 342 342 342 343 343 342 340 338 332 333 334 338 338 336 337 336 336
345 347 348 347 348 350 349 348 348 349 348 348 348 349 349 350 349 347 345 344 345 346 343 343 342 340 339 339 338 338 338 337 338 334 329 330 330 334 335 334 334 334 333
346 346 342 344 347 349 349 348 347 347 346 346 348 348 349 349 348 346 343 343 344 344 342 341 338 338 337 336 335 334 333 334 334 326 327 330 330 334 333 331 330 330 329
347 349 345 342 345 345 348 347 344 345 345 345 347 347 347 346 345 344 342 342 341 342 341 338 336 336 336 334 334 331 330 332 325 324 324 325 325 331 331 330 329 329 329
347 350 348 343 344 341 343 341 338 332 336 344 345 345 345 344 342 342 341 341 340 340 339 337 335 335 334 333 330 328 329 331 326 323 323 324 330 330 330 328 327 327 327
349 349 348 344 338 340 337 333 331 330 329 339 343 343 342 340 340 340 340 339 339 338 337 335 335 334 333 331 329 329 329 332 323 323 324 323 330 329 329 328 327 326 325
344 346 344 345 341 334 332 330 329 328 331 334 340 340 338 338 339 338 337 337 337 336 335 333 334 333 331 329 328 328 328 331 321 322 322 324 329 328 328 327 326 325 325
339 342 343 341 342 338 332 331 331 330 329 332 340 338 336 337 337 335 335 335 335 334 334 333 332 331 329 328 328 328 328 323 323 322 323 329 328 328 327 326 325 324 324
334 339 339 338 339 338 337 331 330 332 328 334 338 337 336 336 336 335 334 333 333 332 332 332 330 328 326 321 320 324 321 323 322 321 323 329 328 328 326 325 324 324 323
333 335 335 336 336 336 334 334 335 330 327 329 335 335 335 335 333 332 330 330 329 330 327 327 325 320 318 319 320 321 323 323 322 321 325 328 327 327 326 325 323 323 322
330 332 335 335 336 335 336 334 334 333 334 333 333 334 333 331 332 330 325 325 323 323 321 320 319 320 318 320 322 323 324 323 321 321 324 327 326 326 326 325 324 322 321
329 330 331 331 333 332 333 334 334 333 332 330 329 328 329 329 328 329 323 322 322 322 321 318 320 320 319 318 322 322 324 323 321 321 321 326 327 326 326 326 324 323 322
328 329 328 326 328 330 328 330 331 330 328 328 327 326 327 327 327 327 324 322 324 322 323 320 323 321 319 319 320 321 322 323 322 321 321 322 325 326 326 325 325 324 323
328 328 324 324 325 326 327 328 329 328 327 325 325 324 325 326 325 326 326 323 324 324 324 323 322 321 319 319 318 320 321 321 323 321 321 321 322 325 326 327 326 324 324
328 326 324 324 323 324 324 326 326 326 325 324 324 325 324 326 326 325 326 326 325 325 325 324 321 320 318 317 316 316 317 319 320 321 321 321 321 322 324 326 326 327 326
326 325 324 323 323 323 324 323 324 324 323 323 324 324 325 325 326 325 326 327 328 326 326 322 321 319 317 317 316 315 315 315 317 318 320 320 320 321 321 324 325 325 326
326 324 324 324 324 323 323 323 322 322 321 321 323 324 323 323 325 326 326 325 327 325 324 322 320 321 319 317 316 315 314 314 314 314 315 317 320 320 321 321 322 322 324
325 322 322 322 322 322 321 320 319 319 320 319 320 323 324 325 325 326 325 326 325 322 322 323 322 320 320 320 316 313 314 315 314 313 313 313 314 315 314 319 320 321 322
321 322 321 320 321 322 323 321 321 321 321 319 320 322 324 324 324 324 323 323 324 323 322 322 321 319 320 320 314 312 309 310 313 314 313 313 312 313 314 315 317 318 317
319 321 319 320 322 322 323 322 321 320 319 318 317 319 321 323 323 323 323 322 323 323 323 323 323 321 317 319 319 316 309 308 311 313 313 313 312 313 312 313 314 314 314
320 322 322 321 321 322 323 321 318 317 314 316 315 317 320 323 323 323 323 323 322 323 324 324 325 322 321 316 319 321 320 318 311 310 314 314 315 313 313 313 312 313 313
321 320 322 322 321 322 322 321 319 318 318 317 315 315 319 321 322 323 323 324 323 322 324 324 323 323 322 318 317 316 317 317 317 311 307 311 314 315 313 313 312 312 312
322 320 323 322 321 321 322 321 321 319 318 317 315 315 318 318 322 322 323 324 323 325 324 322 323 322 320 318 318 319 317 314 314 312 310 311 311 313 314 313 313 310 310

GFSSE_sfc_thetae_075.txt.gz
Theta_e
342 349 349 350 350 350 349 350 349 349 350 351 351 350 349 349 348 348 347 347 347 348 348 348 349 348 348 347 348 347 346 345 345 346 346 347 345 345 344 344 343 340 345
345 348 349 349 350 350 350 350 350 349 351 351 350 349 348 348 348 348 347 348 349 349 346 347 347 345 346 345 346 345 345 344 343 344 345 344 343 343 343 343 343 340 343
344 347 350 349 349 350 350 350 350 350 351 351 350 349 348 348 348 347 348 349 349 349 347 345 344 344 345 346 344 344 343 342 341 341 342 336 337 342 341 340 341 340 340
344 345 348 349 349 349 349 349 350 351 351 350 349 349 349 349 348 349 347 347 348 348 345 344 344 344 345 344 343 343 342 340 339 338 334 335 336 340 340 339 338 337 336
343 343 346 347 348 349 349 349 349 349 348 349 348 349 349 349 349 348 346 346 347 347 345 344 343 343 343 342 342 341 340 338 336 332 330 331 333 336 337 336 335 334 333
339 343 343 344 347 349 349 348 348 348 347 347 347 348 349 349 348 346 344 345 346 346 345 342 341 340 339 338 338 336 334 335 331 326 328 332 330 335 334 332 331 331 330
338 341 342 342 346 348 349 348 347 346 343 346 346 347 348 348 347 344 343 344 344 344 342 341 340 338 336 336 334 332 332 330 324 323 324 327 328 332 332 331 329 328 329
339 341 341 344 345 346 346 345 342 334 331 329 333 345 347 345 343 342 342 342 342 341 339 339 338 336 335 333 331 330 331 329 325 322 322 324 330 331 331 329 328 328 327
337 340 339 340 340 339 338 337 334 336 332 330 330 340 341 341 340 341 341 340 340 339 338 337 336 335 333 331 329 328 329 328 322 322 323 322 329 329 329 329 328 327 326
336 336 339 338 334 333 330 332 332 332 331 331 329 333 338 338 340 340 339 338 338 337 336 336 334 333 331 329 328 329 328 327 321 320 320 324 329 329 329 327 327 326 326
333 335 335 337 332 330 328 330 332 332 332 330 331 327 335 336 335 335 336 336 336 335 334 334 332 330 329 328 328 328 326 321 321 321 320 329 329 329 328 327 326 326 325
326 329 332 332 333 331 330 329 327 327 328 330 329 327 335 334 332 333 334 333 333 333 333 332 330 329 324 318 318 323 321 321 321 321 322 329 328 328 327 326 325 325 324
326 328 328 330 330 332 331 328 327 325 326 328 326 327 334 332 332 331 330 330 329 330 327 325 324 319 317 317 317 318 320 320 321 321 325 328 328 327 327 326 325 324 323
323 325 327 328 329 330 332 328 329 324 325 327 331 334 333 330 329 327 326 325 325 324 321 318 316 316 316 318 318 320 319 319 320 320 323 326 328 327 326 325 324 324 322
322 325 322 323 327 329 330 331 331 328 328 326 331 332 332 330 325 324 324 322 318 321 319 316 316 314 315 316 319 320 319 319 320 321 319 325 327 327 326 326 324 323 322
323 321 321 320 322 328 327 329 332 331 331 329 329 330 331 329 324 322 321 318 318 318 315 317 318 315 314 316 317 319 320 319 319 319 319 321 324 324 327 326 325 324 323
323 321 319 319 320 325 324 328 329 330 330 327 327 328 328 328 325 323 319 320 321 319 316 317 319 318 315 317 316 317 321 319 319 319 319 318 320 323 325 326 326 324 324
322 320 320 323 321 322 325 327 327 328 328 327 326 326 325 325 326 324 320 320 322 320 319 319 319 317 314 314 313 315 317 319 319 319 319 319 318 321 322 325 326 326 325
323 321 317 319 322 322 323 325 327 326 325 325 324 324 324 324 325 325 323 322 323 321 321 321 318 317 314 313 313 312 313 317 318 319 318 318 318 319 320 324 324 324 326
323 322 319 320 322 322 322 323 323 323 323 324 323 323 324 324 324 323 325 325 325 322 321 320 318 315 315 315 315 312 312 313 315 317 318 319 318 319 320 320 322 321 323
321 322 321 320 321 322 320 320 319 318 321 321 322 322 323 323 324 324 324 324 325 323 321 319 317 316 314 315 310 309 310 311 312 311 312 316 317 318 318 319 320 321 321
320 321 321 320 321 321 321 321 321 319 320 321 322 322 322 322 322 322 323 322 324 322 321 318 318 316 316 315 310 310 306 309 309 310 309 310 309 314 316 318 318 319 319
319 320 319 319 320 322 322 321 321 320 319 318 319 319 320 321 323 322 323 323 323 322 320 318 318 316 315 316 314 312 307 304 307 310 310 309 308 309 310 310 316 317 318
316 320 320 320 320 322 322 319 319 317 315 316 318 319 320 322 322 321 321 320 321 320 319 319 320 318 318 314 316 319 317 314 308 306 313 310 310 310 309 308 310 313 315
315 319 319 320 320 321 321 320 318 317 318 318 317 317 319 320 322 321 321 319 318 319 319 320 320 319 318 316 314 314 314 314 314 310 307 310 312 311 311 311 311 312 312
317 319 320 319 319 321 321 320 318 317 316 315 315 315 316 318 320 320 320 319 318 318 320 321 320 320 318 317 317 316 313 311 311 309 307 307 308 310 313 313 312 312 311

GFSSE_sfc_thetae_078.txt.gz
Theta_e
343 346 349 350 350 350 349 349 349 349 350 351 351 350 350 350 350 349 348 348 349 351 350 350 350 350 350 348 348 348 348 347 346 346 346 346 346 345 345 345 344 340 344
344 347 347 349 350 350 350 349 349 350 351 351 350 349 348 348 348 348 348 348 349 350 348 348 349 347 347 346 346 346 345 345 344 344 345 344 344 343 343 343 343 340 343
344 347 348 347 349 350 350 350 350 351 351 351 349 348 348 348 347 347 347 347 348 349 347 347 346 347 346 346 345 344 344 343 342 342 342 338 337 341 342 342 342 342 342
344 347 347 347 348 349 349 350 350 351 350 350 349 349 348 348 348 349 347 346 347 348 347 345 345 345 345 343 343 342 341 341 340 339 336 336 337 341 341 340 339 338 337
343 346 347 346 347 349 349 349 349 349 349 348 348 349 348 349 349 349 347 347 347 347 343 344 345 345 343 342 341 340 339 337 336 334 332 334 335 338 339 337 335 334 333
341 344 345 344 346 348 349 349 348 348 346 346 347 348 349 349 349 348 346 346 347 346 346 344 345 343 341 340 338 338 335 334 332 330 331 333 332 337 336 334 333 332 331
337 341 344 343 345 348 349 349 348 346 346 345 345 346 348 348 348 346 345 345 345 344 344 344 343 340 338 335 335 335 333 331 324 324 328 328 328 333 332 331 330 329 329
337 339 341 345 345 346 347 346 340 335 336 333 332 331 340 344 345 345 344 343 343 342 342 341 339 337 335 334 334 331 330 329 323 320 325 325 330 331 331 329 329 328 328
338 337 338 340 344 344 342 340 334 333 334 332 330 330 331 338 340 343 343 342 341 340 340 338 336 334 334 332 332 330 328 327 321 322 322 324 330 330 330 329 328 328 327
334 336 336 339 336 334 335 336 333 335 335 334 332 329 330 337 338 340 340 340 339 339 338 337 334 333 332 331 330 328 327 327 319 318 319 324 330 330 329 328 328 327 326
331 332 335 334 334 331 329 332 335 335 333 333 332 330 333 333 335 336 337 337 337 336 336 335 333 331 330 330 329 328 326 321 320 320 320 329 329 329 328 327 327 327 326
327 329 330 331 330 330 330 330 328 330 330 329 328 326 333 333 335 334 335 335 334 334 334 333 330 329 324 323 324 325 320 320 320 320 321 329 329 329 328 327 327 326 326
325 326 329 329 329 328 328 326 325 325 327 327 327 325 333 333 333 333 331 331 330 331 328 326 324 318 317 317 319 318 319 319 320 321 325 328 328 328 328 327 326 326 325
323 324 325 326 328 328 327 326 326 324 327 327 327 325 326 331 330 329 328 328 327 325 322 319 316 315 315 317 319 318 319 319 319 320 324 327 328 328 327 327 326 325 324
321 322 322 324 325 330 327 327 327 323 325 326 326 327 325 330 328 327 326 324 321 319 318 316 315 315 315 317 319 318 318 318 319 320 319 326 327 327 327 326 325 325 324
322 319 319 319 323 329 330 327 327 324 325 325 331 328 328 329 326 324 322 320 318 316 315 313 313 312 313 316 318 318 318 318 319 318 318 322 325 326 327 326 325 324 324
321 318 317 317 319 323 328 330 329 327 328 328 331 331 329 325 323 323 320 319 318 314 311 313 314 312 311 316 318 317 318 318 318 318 317 317 320 323 325 326 325 324 324
319 317 318 321 318 324 324 328 329 330 328 328 330 330 327 324 323 319 317 318 317 315 314 314 315 312 312 314 316 317 316 317 317 317 317 317 316 318 322 325 326 326 324
319 317 316 317 320 322 324 327 327 329 328 329 329 328 327 324 321 317 316 319 317 315 315 316 315 313 312 311 315 315 316 315 315 318 316 316 316 318 318 323 324 324 325
318 316 316 318 320 322 324 325 326 326 326 326 327 326 326 325 322 319 319 321 318 317 317 317 315 314 313 312 315 313 314 315 315 315 316 318 317 318 317 318 320 321 322
317 316 316 317 321 321 321 320 321 320 322 323 324 324 324 324 324 321 319 322 320 319 319 318 315 313 311 311 309 308 309 312 314 315 315 316 316 317 316 318 319 319 320
318 317 318 318 320 320 320 321 320 321 322 322 323 322 323 323 322 322 321 322 323 320 318 315 315 313 312 312 309 307 303 307 310 311 313 314 313 316 316 318 318 319 319
317 317 318 319 319 319 320 320 320 319 319 320 320 320 321 322 322 322 322 322 323 321 318 315 314 315 312 311 312 309 305 303 307 308 308 309 310 312 316 316 316 317 319
316 318 318 319 320 320 320 319 318 317 315 318 319 320 319 321 322 321 322 322 321 321 319 319 318 314 314 312 312 316 315 312 306 305 311 308 308 307 308 310 314 316 317
316 317 319 319 320 321 320 318 318 317 317 318 319 318 318 319 321 320 321 321 321 320 319 319 319 317 315 314 311 313 314 313 312 307 303 308 309 309 309 309 309 310 314
315 316 318 318 319 321 320 319 318 316 316 316 316 316 317 318 320 320 320 320 321 320 318 319 321 318 316 316 314 314 313 311 309 308 305 306 307 310 311 310 309 310 310

GFSSE_sfc_thetae_081.txt.gz
Theta_e
340 344 348 350 350 350 348 349 349 350 351 352 352 352 352 351 351 350 350 350 351 352 351 351 353 353 350 348 348 348 347 347 346 346 346 346 346 346 345 344 344 340 345
342 345 347 349 350 349 349 349 349 350 351 351 351 351 350 350 349 349 349 350 351 351 348 350 351 349 347 348 348 347 346 345 344 344 344 345 344 344 344 343 343 341 344
342 345 346 347 349 349 349 350 350 351 351 351 350 350 349 349 349 349 349 349 349 349 349 348 348 348 346 347 346 345 345 343 343 343 343 337 338 342 343 343 342 343 341
344 344 345 347 348 349 349 350 350 351 351 350 349 349 349 348 348 348 348 347 348 349 349 347 347 346 346 345 344 343 342 342 341 340 336 337 337 341 341 340 340 340 340
344 345 345 346 347 348 348 349 349 349 348 348 348 349 348 348 348 348 347 346 347 348 349 347 346 345 343 342 341 341 340 339 337 335 333 333 335 339 340 338 336 336 335
341 345 343 344 346 348 348 349 348 348 346 346 347 347 348 349 348 347 345 346 347 347 345 347 345 343 340 340 339 338 337 336 334 331 333 335 334 338 336 335 334 332 332
337 341 344 342 345 347 349 349 348 347 345 345 344 345 346 347 347 347 345 345 344 343 345 345 343 341 339 337 336 335 334 333 328 329 329 330 332 336 336 334 331 331 331
336 339 343 344 345 345 347 346 344 339 338 337 336 338 342 342 342 343 343 344 344 343 343 342 341 339 337 336 334 332 331 330 326 326 327 329 333 333 332 331 329 329 328
335 337 338 343 345 343 342 340 339 335 333 333 332 332 335 336 337 339 342 341 342 342 341 340 338 335 337 335 333 330 328 328 320 320 325 328 332 330 331 329 329 328 328
333 334 335 338 343 344 341 335 335 333 333 333 333 331 329 333 336 338 338 339 340 340 339 337 334 334 335 333 331 329 328 326 319 318 320 325 329 330 329 329 328 327 327
331 332 332 333 335 337 337 335 335 335 334 334 332 332 329 331 333 335 335 337 338 338 336 335 332 332 331 331 330 328 326 320 319 317 321 327 330 330 329 328 327 327 326
326 328 330 329 331 329 334 334 333 333 333 331 330 328 329 330 332 333 334 334 335 335 334 333 331 331 329 325 326 325 320 319 319 319 321 329 330 330 329 327 326 326 325
327 326 327 328 328 327 330 331 331 331 329 327 326 327 331 332 332 332 333 332 332 333 329 327 326 324 323 322 318 318 319 319 319 319 324 328 330 329 328 327 326 326 325
323 325 326 327 329 328 327 327 328 327 328 326 324 325 331 330 330 331 331 330 328 326 321 322 318 317 320 319 317 317 318 319 319 319 324 327 329 328 328 328 327 326 324
321 322 322 323 327 328 327 325 325 325 326 327 325 324 330 327 328 331 329 328 326 322 320 315 314 316 317 317 318 318 318 318 318 319 320 326 327 328 328 328 327 326 325
320 320 320 321 323 329 326 325 324 324 325 325 325 324 328 330 330 328 327 324 322 322 319 315 314 314 316 317 316 318 318 318 318 317 319 322 325 326 327 327 326 326 325
321 319 318 318 322 328 327 326 326 324 325 325 325 325 325 330 329 327 325 321 320 318 315 313 311 312 315 317 316 317 318 318 317 317 317 318 321 323 325 326 326 325 325
319 317 316 319 318 324 328 328 327 324 325 325 329 328 326 329 328 325 322 319 319 314 313 314 311 310 315 316 315 315 316 317 316 316 316 316 316 319 323 325 325 326 324
318 316 315 315 316 322 325 328 329 325 326 327 330 328 326 325 325 322 320 317 317 314 314 314 312 311 312 314 315 314 315 315 315 317 315 315 315 315 317 323 324 323 324
316 315 316 316 320 322 324 326 327 327 326 328 329 328 325 323 321 318 317 315 315 313 313 314 314 311 313 314 316 313 312 313 313 313 313 315 315 316 316 317 319 319 322
314 314 316 317 319 321 322 321 322 322 325 327 328 327 324 322 319 316 317 315 315 312 314 316 314 311 309 312 310 308 309 313 313 313 314 314 315 316 314 316 317 317 319
315 314 315 316 319 318 321 321 321 322 323 325 325 326 326 322 318 317 318 315 316 314 315 315 313 310 309 310 309 307 304 307 309 312 314 315 315 315 315 317 316 317 317
316 315 316 316 317 319 321 320 320 320 321 320 321 323 323 323 322 317 319 318 318 318 317 316 314 312 310 309 311 307 303 302 307 307 310 313 313 312 315 316 316 317 317
316 317 317 315 318 320 320 319 319 318 316 319 320 321 321 322 322 321 320 322 320 319 318 317 316 315 313 310 308 313 311 310 304 303 309 309 311 311 313 314 315 316 316
317 316 317 316 318 320 319 319 318 316 317 319 320 319 319 320 321 321 322 321 321 321 320 318 316 315 313 311 308 311 312 311 310 307 305 308 307 308 310 312 313 314 315
316 316 315 316 317 319 319 318 317 317 316 317 317 317 317 318 320 320 321 321 321 320 320 319 319 316 315 314 312 312 311 310 309 307 306 305 306 308 309 308 308 310 311

GFSSE_sfc_thetae_084.txt.gz
Theta_e
338 341 347 347 347 349 349 350 350 351 353 353 352 352 352 352 351 351 351 351 351 353 353 351 353 353 351 350 350 349 349 348 347 347 347 347 346 346 346 345 345 342 346
339 344 346 347 348 348 349 350 350 351 353 353 352 352 351 351 350 350 351 351 352 352 351 352 352 352 350 348 348 347 347 346 345 345 346 346 345 344 344 344 344 342 345
340 344 346 347 348 349 350 349 351 352 353 353 352 351 351 351 350 350 351 350 351 350 348 352 351 350 348 348 346 346 345 344 344 343 344 340 340 344 344 343 344 344 344
341 343 345 347 347 346 349 349 350 350 352 352 352 351 351 350 350 350 349 348 349 350 351 351 349 348 347 346 345 344 344 343 342 341 337 338 338 343 343 342 342 341 341
341 342 344 346 346 345 348 348 349 350 348 350 350 351 350 350 350 350 347 348 349 350 351 349 348 348 345 343 343 342 341 340 339 336 335 335 336 340 341 339 338 339 339
341 342 342 344 346 346 348 348 348 348 347 347 348 349 350 349 350 349 347 347 347 348 349 348 348 345 342 341 340 340 339 337 334 332 334 336 334 338 337 335 336 335 336
340 342 343 342 345 345 347 348 348 347 346 346 346 345 346 345 345 346 343 344 345 345 346 346 344 342 340 339 339 337 336 335 330 330 331 332 333 337 336 333 332 332 332
337 340 341 343 344 344 345 346 345 344 344 344 343 343 343 344 343 342 342 342 342 343 344 343 341 340 339 338 336 334 333 332 327 327 330 332 337 336 335 332 331 330 330
334 337 340 342 344 342 342 341 340 340 339 339 339 339 340 340 340 340 342 342 340 341 341 340 339 338 337 336 334 332 330 328 322 327 329 330 335 334 332 331 329 329 328
332 333 338 341 343 343 342 337 336 335 335 335 336 335 335 334 335 337 339 339 340 340 340 339 336 337 335 334 332 329 328 326 320 322 326 329 333 333 330 328 329 327 327
329 331 334 338 341 342 338 337 336 335 334 333 333 332 330 331 331 332 336 337 336 337 338 335 336 335 333 331 330 328 325 319 319 319 322 331 330 329 329 328 327 326 326
327 328 331 334 336 337 337 336 334 332 331 331 330 329 328 330 329 330 334 333 335 335 334 333 334 332 329 326 326 325 320 319 320 320 321 329 331 330 330 328 327 326 326
328 327 329 330 332 331 332 334 333 333 331 331 329 329 328 328 330 331 332 332 332 333 328 328 330 325 323 323 318 319 319 319 319 320 324 329 331 330 329 327 327 327 326
323 327 328 331 328 330 331 332 331 332 331 329 329 327 327 327 329 329 330 330 330 329 323 324 324 321 320 318 318 319 319 319 319 320 324 328 330 329 328 329 328 327 325
322 324 325 329 329 329 328 329 329 329 330 328 326 327 328 327 328 327 330 329 329 324 320 318 318 320 317 316 317 319 318 318 319 320 322 326 328 330 329 329 328 327 326
321 323 323 326 329 328 327 327 326 327 327 327 325 326 329 329 329 328 329 327 325 324 318 315 317 318 317 317 316 317 318 319 319 319 320 323 325 328 327 327 327 327 326
320 321 321 321 325 327 326 326 325 325 325 325 325 323 329 328 328 329 327 324 323 322 317 314 313 315 316 316 316 316 317 319 319 318 319 320 322 324 326 328 327 326 325
318 319 318 321 325 326 326 326 325 324 324 325 325 324 327 328 329 328 326 323 323 320 316 314 315 314 314 315 313 314 316 317 317 317 318 319 319 320 323 325 326 326 324
318 317 316 316 322 326 326 326 326 324 324 324 326 325 325 328 329 328 326 322 318 317 316 313 311 315 314 314 314 313 314 314 315 317 316 316 317 318 319 323 323 323 325
316 316 317 314 317 323 326 328 327 324 324 325 326 327 326 326 328 327 323 319 319 317 315 313 312 313 315 314 315 312 312 313 314 314 314 316 316 317 318 320 321 320 322
314 317 317 315 315 320 321 323 324 323 323 324 327 328 327 326 327 323 319 316 317 316 314 313 313 312 311 313 311 308 309 311 313 313 314 314 315 316 317 318 319 319 320
315 317 317 317 317 321 318 322 323 323 325 325 326 325 323 322 321 319 316 316 314 314 314 314 312 309 310 314 309 308 305 308 311 313 314 315 315 316 316 317 317 318 318
315 315 315 316 317 319 321 321 321 321 321 323 324 323 321 320 318 318 316 315 313 314 313 314 312 311 311 310 314 309 304 304 308 310 312 314 314 314 316 317 316 317 318
316 316 316 316 317 318 320 320 319 318 318 319 322 323 320 319 318 318 316 314 314 314 314 315 315 313 313 309 309 312 311 309 306 303 309 312 314 313 314 315 316 317 317
316 316 316 315 315 319 319 320 319 318 318 320 321 320 321 320 318 319 320 317 316 316 317 316 315 314 313 311 310 311 311 311 310 306 304 307 309 312 314 315 315 316 317
316 315 316 315 316 318 319 319 318 316 317 318 318 318 319 320 319 319 320 320 320 318 318 317 316 315 313 312 312 312 311 310 309 308 306 307 307 309 311 312 313 314 316

GFSSE_sfc_thetae_090.txt.gz
Theta_e
344 349 348 350 350 351 352 351 352 352 352 353 353 353 353 353 353 353 353 354 354 355 354 352 351 351 350 350 350 351 351 349 348 349 349 350 349 348 348 348 347 346 347
347 351 346 348 350 351 352 352 352 352 352 353 353 353 352 353 353 354 353 353 353 355 353 351 352 351 350 351 351 350 349 348 347 347 348 348 347 347 347 346 346 345 346
349 352 350 347 349 351 352 352 353 354 354 354 353 353 352 353 353 352 353 352 352 354 352 351 351 351 350 351 349 348 347 347 346 346 347 345 345 346 346 345 345 345 346
349 352 352 346 348 350 351 352 353 354 354 354 353 352 353 353 352 352 351 351 352 353 353 351 351 351 350 348 347 346 346 345 344 344 345 343 343 344 344 343 343 344 344
348 350 352 345 345 349 350 351 352 352 352 352 352 353 353 352 352 352 350 350 351 353 353 351 351 350 348 345 345 344 344 343 343 343 344 344 341 344 344 343 342 342 343
346 349 345 343 345 348 350 350 349 351 350 350 351 352 352 352 352 351 349 350 351 350 350 350 349 347 345 343 343 342 341 341 340 341 341 341 341 342 342 341 342 341 341
346 349 350 341 344 347 349 350 347 349 348 349 350 350 351 351 350 348 347 348 349 349 348 348 347 345 343 342 341 340 339 339 339 340 339 340 341 340 340 339 338 338 338
348 350 351 344 344 345 347 348 345 345 347 348 348 349 350 349 346 346 345 346 346 346 345 345 344 343 341 340 339 337 336 337 339 337 337 337 339 338 336 337 336 336 334
351 351 349 348 346 342 342 343 343 343 344 345 346 345 345 343 342 344 343 345 344 344 344 343 342 341 340 338 336 335 334 337 338 337 336 336 338 336 335 334 334 334 332
350 351 349 347 348 349 349 340 341 342 342 343 341 341 341 340 341 342 342 342 343 343 343 342 339 339 338 336 334 333 333 335 336 336 335 336 337 336 334 333 333 332 331
348 348 349 347 349 348 350 348 342 342 341 339 340 337 338 348 346 343 338 337 338 339 340 340 338 337 335 334 333 332 332 336 335 334 334 335 337 335 333 331 330 329 329
344 347 344 349 348 347 347 350 348 348 348 349 347 346 348 345 343 339 336 335 336 336 337 337 335 333 335 337 336 332 336 336 334 332 333 334 336 334 330 331 329 329 329
342 344 341 346 347 348 347 346 347 348 348 346 346 346 344 342 340 339 337 337 338 335 336 335 334 338 337 337 337 336 334 336 332 333 330 332 334 332 331 329 328 329 328
338 342 342 343 345 345 347 343 343 343 345 343 344 342 340 337 338 337 332 333 335 336 334 332 334 338 336 335 335 335 335 333 332 331 330 329 332 332 331 329 328 327 327
336 342 344 342 343 343 342 340 339 340 340 341 341 341 338 335 335 335 331 333 337 334 332 331 333 335 335 334 335 334 333 331 331 329 329 328 329 332 330 329 330 329 328
332 338 345 340 341 341 340 340 337 338 338 339 340 336 340 333 333 333 333 335 336 334 332 331 332 334 333 334 333 333 331 330 330 328 327 327 327 329 330 330 330 329 329
329 336 342 341 339 337 338 339 339 339 338 336 336 333 335 332 332 332 332 331 335 333 329 330 333 334 332 332 331 331 330 329 327 327 327 327 326 325 328 330 330 329 328
327 332 340 340 338 338 335 335 336 338 337 335 334 333 330 330 331 336 330 330 333 330 328 328 332 331 330 330 329 329 327 326 326 327 326 326 326 326 326 327 328 329 328
325 331 337 342 337 337 335 333 335 336 334 333 330 330 330 329 331 332 332 330 329 327 325 328 329 330 328 328 327 327 327 326 326 325 326 327 328 326 325 325 325 325 326
326 331 335 339 337 335 335 336 335 334 332 332 329 329 329 330 331 330 329 328 327 324 324 326 328 330 329 327 324 324 327 326 327 324 325 326 327 327 327 326 325 324 322
326 330 332 336 333 333 333 332 331 329 329 328 328 328 328 329 329 330 328 326 324 323 323 328 328 328 327 328 323 321 323 324 324 325 325 325 325 326 327 327 326 325 324
325 329 331 335 330 334 336 335 332 329 329 329 328 327 328 328 330 329 326 325 324 322 322 328 328 326 326 327 321 320 314 317 321 323 324 324 325 325 325 326 326 326 326
325 328 330 333 332 335 335 333 331 330 328 328 326 325 326 328 329 328 325 324 324 323 322 327 329 327 323 325 326 321 315 313 318 322 324 324 324 324 325 325 325 326 326
326 329 330 332 334 333 334 331 329 327 323 326 325 327 327 326 327 325 325 324 324 324 324 327 330 328 327 322 324 324 324 322 316 314 322 323 324 323 325 325 325 326 326
326 328 330 332 332 332 331 331 328 325 326 329 329 325 325 326 325 324 324 324 323 323 326 329 329 328 326 325 323 323 324 324 324 318 315 319 323 324 325 326 325 324 325
326 324 327 330 330 330 330 329 328 326 324 326 323 322 320 319 323 322 323 323 323 323 325 326 326 329 328 328 325 324 322 320 320 319 316 318 319 322 324 325 325 325 326

GFSSE_sfc_thetae_093.txt.gz
Theta_e
340 349 349 352 352 353 353 353 352 352 353 353 354 354 354 354 354 354 354 354 354 356 355 353 352 351 350 350 350 352 351 350 349 350 350 351 349 348 348 348 347 346 347
344 350 348 350 351 352 353 352 353 353 353 354 354 354 353 353 354 354 354 354 354 355 353 353 352 351 350 350 351 350 349 349 348 348 349 349 348 347 347 347 346 345 346
345 350 350 348 350 352 353 353 354 354 354 354 354 353 353 354 354 354 354 354 354 354 353 352 351 351 350 350 349 349 348 347 347 347 348 344 345 346 346 345 345 346 345
344 350 351 347 349 352 352 353 354 354 355 354 354 353 353 354 354 354 352 352 353 353 353 352 351 351 351 349 348 347 347 346 345 345 344 342 343 346 345 345 345 345 344
342 348 352 347 348 350 351 352 352 353 353 353 353 353 354 353 353 353 351 351 352 353 353 352 351 350 348 346 345 345 345 344 343 343 341 342 343 344 344 343 343 343 343
342 345 345 344 346 349 351 351 352 352 351 351 351 352 353 353 353 352 349 351 352 352 352 351 349 348 345 344 344 344 343 343 341 337 342 341 342 343 344 342 343 342 341
342 347 351 342 345 348 350 351 349 350 349 350 350 351 349 352 349 347 348 349 349 350 350 349 348 345 344 343 343 342 341 338 341 339 341 342 342 343 342 341 340 340 339
344 348 351 344 345 346 348 348 346 347 348 349 349 350 350 349 346 348 348 347 348 347 346 346 345 344 342 342 341 339 338 338 338 337 341 339 341 341 341 339 338 338 337
349 350 352 349 347 343 343 345 343 345 347 346 346 347 346 345 344 346 346 345 344 346 345 344 343 342 341 338 339 337 336 335 340 337 338 337 339 339 339 338 336 335 336
351 352 352 351 350 349 349 342 342 342 343 345 344 341 342 342 342 342 342 344 343 344 343 342 341 340 339 336 337 335 334 336 336 336 336 336 338 336 335 336 334 333 333
349 351 352 351 350 350 349 347 343 343 342 342 343 340 339 348 347 345 341 339 340 340 339 339 337 337 336 335 333 333 333 336 336 335 336 336 338 335 334 333 332 331 331
345 348 351 351 350 350 346 350 348 348 348 348 348 348 349 347 347 342 339 335 336 337 337 337 335 334 335 338 337 333 336 336 333 333 335 336 337 335 333 331 330 329 330
343 345 348 350 351 350 347 347 346 347 346 347 349 346 346 345 346 346 340 337 336 336 338 336 334 336 339 339 338 338 336 333 332 331 333 334 336 334 332 331 329 329 330
337 342 349 348 349 350 348 345 345 344 347 346 347 350 347 345 345 342 338 338 336 334 337 334 334 334 336 337 338 336 334 332 333 331 332 332 333 333 332 330 331 329 328
329 339 347 345 348 348 350 347 346 346 345 347 347 346 345 342 341 340 335 336 337 335 332 331 332 332 332 334 335 335 332 334 331 331 331 329 331 333 331 329 329 329 327
324 333 348 347 347 347 347 346 346 345 344 345 344 345 345 343 340 337 335 334 334 334 332 331 331 330 330 331 334 332 331 331 330 329 329 329 328 330 331 330 329 330 329
323 327 345 350 345 346 344 344 343 343 343 341 343 345 343 342 340 337 333 333 337 333 335 331 330 330 329 331 330 331 330 329 327 327 328 328 328 326 328 330 332 330 329
322 326 334 343 343 343 342 343 342 342 343 342 340 342 341 340 337 335 331 334 333 332 332 329 328 327 327 328 328 328 328 328 327 326 327 327 327 326 326 328 330 330 330
321 324 331 342 343 339 340 342 341 341 340 341 341 339 338 337 336 333 336 332 332 329 329 330 327 327 326 328 326 328 327 324 325 324 327 327 327 326 326 326 327 327 328
320 325 330 339 344 339 339 338 337 338 338 336 336 337 335 335 334 335 332 330 333 328 327 328 326 326 327 326 324 324 325 325 324 324 325 326 326 328 326 328 327 325 324
321 323 329 335 343 338 334 332 333 332 332 333 333 333 334 333 331 331 330 330 330 325 326 326 326 324 324 330 324 322 325 327 326 323 324 324 325 327 326 327 326 325 324
320 322 329 332 338 337 334 336 338 335 334 333 333 331 332 331 331 329 330 328 327 325 324 324 324 322 323 327 322 321 316 318 322 324 323 323 327 324 325 327 326 325 325
320 324 327 331 336 337 338 338 336 335 331 329 330 331 331 331 330 329 329 327 325 324 324 324 325 323 322 325 326 320 314 311 317 322 324 322 326 324 324 324 325 325 326
321 326 329 331 336 334 338 336 334 328 325 328 330 330 328 328 328 328 328 326 324 325 323 323 325 324 325 321 325 326 325 322 315 313 320 322 323 323 326 324 325 325 326
320 325 330 331 334 335 338 336 334 331 331 330 330 330 329 327 327 327 326 325 324 323 324 324 324 326 326 325 324 324 325 323 324 318 313 318 321 322 324 326 326 326 327
319 328 331 331 332 334 335 335 334 332 330 326 329 329 327 326 325 325 325 325 324 324 324 324 326 326 326 328 327 326 323 319 319 319 317 318 319 321 324 326 327 327 327

GFSSE_sfc_thetae_096.txt.gz
Theta_e
343 348 350 352 353 354 353 352 352 352 353 354 354 354 354 354 354 354 355 354 355 357 356 354 353 352 350 351 351 352 351 350 349 351 351 352 350 349 348 348 347 344 348
346 349 349 351 352 353 354 353 352 352 353 354 354 354 354 354 354 354 354 354 355 356 354 353 352 351 351 351 350 350 349 349 348 349 349 350 349 348 348 348 346 345 347
344 350 350 350 351 352 353 354 353 353 354 354 354 353 354 354 354 354 354 354 355 355 354 352 352 351 351 350 349 348 348 347 346 346 346 342 343 348 347 346 346 346 345
346 347 349 348 350 352 352 353 354 354 354 354 354 354 354 354 352 353 353 353 353 354 354 352 352 351 350 349 348 347 347 346 345 345 341 341 342 346 346 345 346 345 345
345 346 348 347 349 351 352 352 353 353 353 353 353 354 353 353 353 353 351 352 352 353 354 352 352 351 348 346 345 345 345 344 343 342 340 340 340 344 345 344 344 344 342
343 346 343 345 347 350 351 352 352 352 351 351 351 352 353 353 353 351 350 351 352 351 352 352 351 348 345 344 344 344 343 342 340 338 338 340 338 344 344 343 343 343 341
344 349 346 343 346 349 351 351 351 350 349 350 351 351 352 352 351 349 348 350 350 350 350 349 349 346 344 343 343 342 341 339 338 337 338 338 339 343 344 342 341 341 340
351 351 347 345 346 347 349 349 348 348 348 349 349 350 350 350 347 347 347 347 348 348 347 346 345 344 343 342 342 340 338 336 339 337 337 337 341 342 342 340 339 339 338
352 351 347 345 346 344 344 344 343 345 346 347 347 347 347 345 344 346 346 346 345 345 344 345 344 342 342 341 340 338 335 337 335 337 336 336 341 341 340 338 338 337 336
352 353 348 347 346 345 346 342 342 342 345 345 346 345 344 343 342 343 343 343 343 343 342 342 341 340 338 339 338 334 335 337 336 334 334 334 339 339 339 338 336 336 335
350 351 351 349 347 347 346 345 342 344 343 344 345 343 339 346 344 344 341 339 340 340 339 339 337 337 334 334 336 335 335 332 334 333 333 336 338 337 337 335 336 333 330
345 349 349 349 348 348 346 346 345 346 345 346 346 346 345 345 344 342 340 337 338 337 337 337 337 335 334 334 331 331 332 335 332 331 332 336 338 335 334 332 331 332 329
343 345 348 347 349 349 344 346 344 345 344 345 346 346 346 343 343 341 337 336 336 336 335 335 334 335 335 335 332 332 333 331 331 331 333 335 336 334 332 331 329 329 330
339 344 346 348 348 349 347 346 344 343 343 343 345 345 343 341 341 339 337 334 333 333 332 334 333 332 332 334 333 333 331 330 330 331 332 333 334 334 333 331 330 331 330
324 341 345 345 347 348 347 345 346 343 343 344 344 345 344 341 340 338 337 335 332 332 332 332 330 329 331 331 332 332 330 330 329 330 330 330 331 333 332 331 330 329 328
320 328 346 344 346 346 345 346 344 346 345 344 344 343 343 341 340 337 335 333 333 333 333 331 330 328 329 330 330 331 329 330 329 328 328 327 329 330 331 329 330 328 328
317 324 345 344 345 345 345 345 344 343 343 342 342 343 342 341 338 336 334 333 332 333 331 330 329 329 328 329 328 329 330 329 327 326 325 326 326 326 328 330 331 330 329
316 320 342 346 344 344 344 343 340 343 341 340 340 342 341 340 338 335 334 332 332 331 331 329 328 328 327 326 325 327 327 324 324 324 324 325 324 324 326 327 329 330 330
316 320 328 345 344 342 343 340 338 340 341 339 339 338 340 339 337 334 332 332 332 331 330 328 327 327 325 325 325 326 324 322 321 323 323 323 323 323 322 326 327 327 328
317 318 327 345 344 342 341 339 338 337 337 339 338 337 337 337 336 334 332 331 331 329 328 327 325 326 325 324 328 325 320 320 320 321 322 323 322 322 322 324 325 324 325
320 320 326 336 342 340 338 335 334 332 334 334 337 337 336 334 333 333 331 330 330 328 327 327 325 324 323 325 322 320 320 319 318 318 323 321 322 322 322 324 324 322 322
318 320 324 333 341 338 337 336 334 332 333 333 332 333 333 332 332 331 331 329 328 327 326 326 324 322 323 324 319 316 312 315 319 319 321 322 321 322 321 323 322 321 321
319 322 324 329 341 339 337 335 334 334 334 332 330 329 330 331 331 330 330 329 328 327 325 325 324 322 320 322 322 316 310 308 312 316 318 317 320 321 321 321 323 322 321
319 323 323 326 330 340 336 333 333 331 327 328 328 329 329 330 330 330 329 328 327 326 325 324 325 323 322 318 321 320 317 316 310 308 315 318 319 318 319 320 320 321 320
317 323 325 326 328 337 335 335 333 331 329 328 328 328 327 328 329 328 328 327 326 326 325 324 324 323 322 320 319 318 316 318 316 311 308 311 316 318 318 319 318 318 320
317 322 326 327 330 335 335 335 334 329 329 327 326 326 326 326 326 327 327 326 325 324 324 324 324 324 323 322 321 320 317 315 314 314 311 311 312 315 318 319 318 320 320

GFSSE_sfc_thetae_099.txt.gz
Theta_e
343 348 350 352 352 352 351 351 351 352 353 354 354 353 354 354 354 354 355 355 356 356 355 354 355 354 354 352 352 352 351 349 349 350 351 352 350 350 349 349 347 345 349
345 347 349 351 352 352 352 351 351 352 353 354 354 353 353 353 354 354 355 355 356 356 354 353 353 352 352 351 351 350 350 347 347 348 349 350 349 349 348 348 347 346 347
344 347 349 349 352 352 353 352 352 353 354 354 353 353 354 354 354 353 353 354 355 356 354 353 352 352 351 350 349 349 348 347 346 345 347 341 343 348 348 347 347 347 347
346 347 347 348 350 351 352 352 352 354 354 354 353 353 354 354 354 353 352 352 354 355 354 353 352 351 349 348 347 347 346 346 345 344 341 341 343 347 347 346 346 346 346
342 346 347 347 348 350 351 352 351 352 352 352 353 354 354 354 354 353 352 352 354 353 354 352 352 350 347 346 345 345 345 344 342 341 338 338 340 344 346 345 345 344 343
340 345 343 344 347 349 350 351 351 351 350 350 351 353 353 354 354 353 351 352 353 353 353 353 351 348 345 344 344 344 343 342 339 337 337 340 339 344 344 344 343 342 340
340 342 343 342 346 348 350 350 350 349 348 349 350 351 352 352 352 350 349 350 350 351 351 350 348 346 344 343 343 342 340 339 336 335 336 337 339 344 344 342 342 341 340
342 342 343 345 346 346 348 348 347 347 347 347 349 350 351 350 349 348 348 347 348 348 348 347 346 344 343 343 341 339 337 338 338 335 337 336 341 343 343 341 339 339 338
344 341 341 342 345 344 344 344 344 345 346 345 347 347 347 346 345 346 346 346 347 346 344 344 344 343 343 341 338 336 335 337 335 336 336 337 341 342 341 339 338 336 335
343 341 339 339 340 340 342 341 342 343 343 344 346 345 344 343 343 344 342 343 343 345 345 342 341 340 339 337 334 335 334 335 333 333 334 336 340 341 340 338 337 335 334
343 341 340 340 339 339 339 341 342 343 343 343 345 343 340 342 341 342 341 341 341 341 339 340 339 337 335 334 332 331 334 333 331 331 334 337 340 340 339 338 337 334 333
338 341 340 340 339 340 344 340 338 341 342 344 345 344 340 340 340 342 339 337 337 337 337 337 336 336 336 334 332 331 330 331 331 331 332 336 339 339 338 335 334 332 329
340 343 341 342 341 340 340 339 340 340 340 340 341 341 340 341 338 335 333 334 334 336 334 332 332 334 334 334 333 330 330 330 330 331 332 334 337 337 335 333 331 329 328
338 342 342 342 342 341 339 339 339 340 339 340 341 340 340 336 334 333 332 332 332 332 331 330 331 333 333 335 333 331 329 329 329 330 332 332 334 335 333 331 329 330 329
333 341 342 341 342 343 338 340 338 339 339 339 339 339 339 335 335 333 331 331 331 331 329 328 329 328 329 331 332 331 328 328 329 330 331 330 331 333 332 331 331 331 329
312 338 342 341 342 342 342 338 338 338 338 339 339 340 337 336 336 334 331 330 329 330 329 330 327 327 328 330 330 330 330 328 329 329 330 329 329 331 332 331 332 330 329
309 317 340 341 343 342 341 339 337 337 338 338 339 339 337 337 335 333 332 330 331 330 330 329 328 327 327 329 328 329 329 329 328 328 327 326 326 326 328 331 331 329 328
310 311 340 342 341 342 341 340 338 336 335 334 337 338 336 335 335 332 331 329 330 330 330 329 328 326 325 326 326 326 327 328 327 326 326 325 324 324 325 327 329 328 329
311 310 335 341 340 340 339 340 337 336 334 333 333 336 336 335 334 332 331 331 331 330 329 328 327 326 324 325 325 325 326 324 324 325 324 324 322 321 321 325 326 326 327
313 311 329 341 339 339 339 336 334 335 337 334 331 333 335 335 333 330 329 329 329 328 328 328 327 327 326 325 326 324 325 323 323 322 322 323 322 321 321 323 324 324 324
310 312 324 339 338 339 336 333 332 332 334 335 335 332 335 336 334 332 331 330 330 328 326 327 326 325 323 325 321 320 320 320 319 321 321 321 320 320 321 323 323 322 323
308 310 324 339 338 338 337 335 333 333 333 333 334 334 334 333 333 332 330 329 329 327 327 326 325 323 323 324 318 317 312 315 315 319 320 320 318 320 321 322 322 320 320
309 310 329 338 338 337 335 333 330 329 331 330 330 331 331 332 332 331 330 329 329 328 326 326 324 323 320 322 322 316 310 308 312 315 317 318 317 318 320 321 321 321 320
308 310 329 338 336 335 334 332 329 328 326 329 330 330 330 331 330 330 330 328 328 327 326 326 325 324 322 319 322 322 316 315 309 309 316 317 318 318 317 320 320 320 320
309 311 323 336 335 334 333 331 329 327 327 329 328 327 328 328 329 328 328 328 327 327 326 325 325 323 323 321 320 319 315 315 313 311 307 311 315 319 319 318 320 319 319
316 310 314 330 335 333 331 329 328 327 326 325 324 324 326 326 327 327 328 327 327 327 325 325 325 323 323 322 322 320 316 313 312 311 309 310 311 313 316 317 317 319 319

GFSSE_sfc_thetae_102.txt.gz
Theta_e
342 348 349 351 352 352 351 351 350 351 352 353 353 354 354 354 354 354 355 355 355 356 355 353 355 355 354 353 353 351 350 349 349 350 350 351 350 350 349 349 347 345 349
343 348 348 350 351 352 351 351 351 351 353 353 352 353 353 353 354 355 355 355 355 355 353 353 353 353 352 352 351 350 349 348 348 348 349 350 349 348 348 348 347 346 348
343 348 349 349 350 351 352 351 352 353 354 353 353 353 353 353 354 354 354 354 354 355 353 353 353 352 351 350 350 349 348 347 347 347 348 343 343 347 347 346 347 347 347
344 347 348 349 350 351 350 351 352 353 353 353 353 353 353 353 353 354 353 353 354 355 353 352 351 350 350 348 347 347 347 345 344 344 341 342 343 346 347 346 346 346 346
343 346 347 347 349 350 350 350 351 352 352 352 352 353 353 354 354 353 352 352 353 355 353 352 349 349 347 346 346 345 345 343 342 340 335 339 340 344 346 345 345 345 344
343 344 344 345 347 349 350 350 350 350 349 350 351 353 353 354 354 352 351 352 353 354 353 352 349 347 344 344 344 344 342 341 339 337 338 341 339 344 345 343 343 343 342
340 343 344 343 346 348 350 350 349 349 348 349 350 351 352 353 352 350 349 350 351 352 352 351 348 345 344 343 342 341 339 339 335 334 335 336 339 344 344 342 342 340 339
338 341 343 345 346 346 348 348 347 347 347 348 348 349 351 350 350 349 347 348 349 349 348 347 345 344 343 342 341 338 337 338 336 334 335 335 341 343 343 340 339 339 337
339 339 340 343 345 344 343 343 343 345 346 346 346 347 347 346 345 347 347 347 347 346 346 345 344 343 343 341 339 336 335 336 333 335 336 336 342 343 342 339 338 336 334
338 338 339 340 342 343 341 341 342 343 342 342 345 345 343 343 344 344 344 344 344 343 344 342 341 340 341 338 337 334 334 335 334 334 335 337 341 342 341 339 337 335 333
338 337 338 338 339 339 341 342 342 344 342 342 343 343 341 343 342 342 341 341 341 342 339 340 339 338 336 335 335 332 331 331 332 332 332 338 341 342 340 337 335 334 333
335 335 337 337 337 338 342 338 337 341 340 342 342 342 342 340 339 341 340 338 338 337 338 337 337 336 335 334 334 333 331 329 329 330 333 337 341 340 339 337 336 333 331
338 337 337 337 337 338 339 340 338 339 340 341 342 342 339 340 338 337 335 334 334 335 333 333 331 330 332 332 330 332 330 330 328 330 334 335 340 340 339 334 333 331 330
338 339 338 338 338 338 338 338 338 339 338 339 340 341 341 338 333 333 333 332 332 332 329 327 326 328 330 332 331 330 330 330 328 330 332 333 337 339 337 334 333 330 330
336 340 339 339 338 339 338 337 337 337 338 338 338 339 340 336 333 332 331 331 331 331 328 326 327 327 328 331 331 330 330 330 329 329 331 331 333 336 335 334 333 330 329
336 339 340 340 340 340 338 337 336 337 337 337 338 339 339 337 333 331 330 330 331 330 327 327 327 326 325 328 328 330 329 329 329 329 330 330 329 331 333 332 330 331 330
315 338 340 339 341 340 339 338 337 337 337 337 337 337 338 336 333 331 330 329 330 330 327 326 325 328 327 328 328 329 329 328 329 329 329 328 327 327 329 331 331 331 330
306 324 340 342 339 339 340 338 338 337 337 337 337 337 335 336 334 331 329 328 329 330 328 328 327 326 326 326 326 327 328 328 328 328 327 327 326 326 326 327 330 330 330
308 311 336 339 338 338 339 339 338 336 336 336 336 337 334 334 334 332 330 329 330 330 329 328 327 325 323 324 325 326 326 326 327 328 326 325 323 322 322 326 326 326 327
309 309 331 337 338 339 339 338 334 334 334 335 335 336 333 334 332 331 329 329 330 328 328 328 326 326 324 324 325 325 325 324 325 325 325 325 323 321 320 322 324 322 323
307 308 320 334 337 339 337 335 332 333 333 332 333 334 334 332 331 330 329 329 330 329 328 328 326 325 324 325 323 321 322 321 323 323 324 323 321 321 320 320 321 321 322
306 307 315 332 336 338 337 337 335 335 332 333 333 334 336 335 333 331 330 330 330 328 327 326 325 324 324 325 320 318 313 315 317 321 321 321 320 320 320 321 321 320 320
301 304 314 329 335 338 338 336 330 331 328 327 331 333 333 334 333 332 331 330 329 329 326 326 325 324 321 323 322 317 311 309 313 317 318 319 318 318 319 320 321 321 321
306 303 313 326 335 337 337 334 331 330 328 330 331 332 332 332 332 331 330 329 329 329 327 326 326 325 323 319 320 321 319 315 311 309 316 317 317 317 317 319 319 320 320
312 312 325 331 335 336 335 333 331 329 329 326 328 329 329 330 330 329 330 328 328 328 327 327 326 324 324 321 320 319 318 314 315 313 309 311 315 317 318 318 319 319 319
314 317 319 334 334 334 334 332 330 328 326 326 327 327 327 328 329 329 328 328 328 328 327 326 326 324 323 321 322 320 317 313 312 312 310 312 312 314 317 317 318 319 319

GFSSE_sfc_thetae_108.txt.gz
Theta_e
337 345 349 352 352 351 350 350 350 351 353 354 355 354 354 354 353 354 354 354 355 355 355 354 355 354 355 355 353 352 352 351 350 351 351 351 351 350 349 349 348 345 349
340 346 348 350 352 351 350 350 350 351 352 354 354 354 353 353 353 354 354 354 355 355 353 353 354 353 353 354 351 350 350 348 349 349 350 350 350 349 348 348 347 347 348
342 346 348 349 351 351 351 351 351 352 353 354 353 354 354 354 354 354 354 354 354 354 353 352 352 351 351 351 350 350 349 348 348 348 349 344 344 348 348 348 348 348 347
343 345 347 348 349 350 350 351 351 353 353 352 353 353 354 354 354 354 353 352 353 354 354 352 352 351 350 349 348 348 348 347 346 344 341 343 344 347 347 346 347 347 346
343 344 346 348 348 350 350 350 350 350 350 351 352 353 354 354 354 354 352 352 353 354 353 352 352 350 348 346 346 346 345 344 343 341 341 342 343 345 346 346 346 346 345
342 344 344 345 347 349 350 350 350 349 348 349 350 352 353 354 354 352 351 352 353 353 350 349 350 348 345 344 344 344 343 341 339 337 340 342 341 345 345 345 344 343 344
341 342 344 343 346 349 350 350 349 348 347 348 350 351 352 353 353 351 350 351 351 351 350 347 349 346 344 343 343 341 340 339 336 336 339 338 340 345 345 343 343 344 343
340 341 343 345 345 346 348 348 346 346 346 347 348 349 351 351 350 349 348 349 349 349 348 347 345 344 343 342 341 339 338 338 336 334 335 338 343 344 344 343 342 341 340
337 341 343 343 344 343 343 343 342 344 345 345 346 347 348 346 346 347 347 347 347 346 346 345 343 342 343 341 339 337 336 336 334 334 335 335 343 344 343 342 341 340 339
336 340 341 342 341 341 342 341 341 342 342 343 344 344 343 343 344 345 345 345 345 345 345 343 342 341 341 338 337 335 334 335 333 333 334 335 341 344 342 340 339 338 336
331 336 339 339 341 339 341 342 342 343 342 342 343 342 339 343 342 343 342 342 343 342 342 342 340 339 338 337 336 335 335 333 332 332 333 336 341 343 342 338 337 336 335
326 329 336 337 339 341 341 342 343 344 344 344 344 342 342 339 339 342 341 339 339 339 340 339 339 337 336 332 334 335 333 332 332 331 332 336 340 342 341 337 336 335 334
328 328 333 336 338 338 339 340 341 342 341 340 341 342 343 340 337 339 338 339 336 338 337 337 336 335 332 331 330 330 331 330 331 333 333 335 339 342 340 338 336 335 333
331 331 331 333 335 336 337 338 338 339 338 337 337 339 340 339 338 336 336 334 334 334 331 332 332 330 330 330 330 329 329 330 330 331 331 332 336 340 340 337 336 334 333
330 334 333 332 334 334 336 337 337 337 339 337 336 336 338 339 339 338 335 334 332 330 329 328 327 328 326 328 329 329 328 329 329 330 330 330 331 337 340 338 336 334 332
320 330 335 333 333 334 335 334 335 337 338 337 336 335 337 339 339 337 334 334 331 330 328 328 327 327 326 326 326 327 327 329 330 330 330 330 328 332 337 338 336 335 332
304 316 332 335 334 333 334 332 333 334 336 336 335 334 337 338 338 336 334 334 333 328 325 324 323 323 323 325 325 326 327 329 329 329 329 329 329 327 331 334 335 335 332
301 305 318 336 334 334 334 333 332 332 333 333 334 335 338 337 337 335 333 333 333 329 326 325 323 323 323 324 325 324 325 327 328 328 330 329 329 330 328 330 332 332 332
302 303 307 329 334 334 334 334 332 333 333 334 334 334 335 337 336 334 333 332 332 329 327 326 323 323 323 324 326 326 327 327 328 329 328 328 328 327 328 327 328 327 329
301 301 303 316 334 335 335 334 334 333 333 334 334 334 335 335 335 334 332 331 330 328 327 326 324 326 325 325 325 324 326 326 327 327 327 328 327 326 324 325 326 325 325
297 299 301 303 318 334 335 333 333 331 332 333 334 334 335 335 334 333 331 330 329 328 327 326 326 324 322 324 322 321 323 325 326 326 328 327 326 325 324 324 324 324 325
295 297 299 301 305 331 333 335 334 334 334 335 334 334 334 334 334 333 331 330 328 328 327 327 326 323 323 323 318 319 314 317 322 325 326 326 325 324 322 322 323 322 323
305 306 304 300 306 326 332 335 333 333 332 331 331 332 333 334 333 333 332 330 329 328 327 327 327 325 322 323 324 318 312 311 314 319 323 325 324 322 322 321 322 320 318
303 305 307 312 306 325 333 334 332 330 328 330 331 332 333 333 333 333 332 331 329 329 328 327 328 326 324 321 322 323 318 317 312 309 317 320 323 321 321 321 320 321 319
303 302 303 307 312 317 331 332 332 330 330 330 332 331 331 332 333 332 332 331 330 330 329 328 327 326 325 323 322 321 321 317 317 313 309 313 317 320 320 320 320 320 320
299 300 301 307 314 314 330 332 331 329 328 327 330 329 329 332 331 332 331 330 330 330 329 328 327 326 325 324 324 322 321 318 314 314 312 313 314 316 318 319 319 319 320

GFSSE_sfc_thetae_111.txt.gz
Theta_e
341 351 350 352 351 351 351 350 351 353 354 355 354 353 353 354 353 354 355 355 356 356 355 354 356 357 356 354 355 354 352 351 351 351 350 352 351 350 350 349 349 347 350
345 352 349 351 351 351 351 351 351 353 355 355 353 353 353 353 353 354 354 355 355 356 354 353 355 356 355 353 352 352 351 350 349 350 350 351 350 349 349 349 348 348 349
347 351 352 349 350 351 351 351 352 354 355 355 354 353 353 353 353 353 354 354 355 355 355 354 353 353 354 352 350 350 349 349 348 348 349 348 347 349 349 348 348 348 348
348 351 352 349 349 350 350 351 352 354 355 354 354 354 354 353 353 354 353 352 354 355 355 353 352 352 351 350 349 349 348 348 346 346 348 346 345 348 348 347 347 348 347
347 350 351 348 348 349 350 350 351 352 352 352 353 354 354 354 354 354 352 352 353 355 355 353 352 351 348 347 347 347 346 345 343 344 346 345 345 346 347 347 347 346 345
347 349 347 345 347 349 350 350 350 350 349 350 351 353 354 354 354 353 351 352 354 354 355 353 352 349 346 345 345 345 344 342 342 345 343 345 344 346 346 346 345 345 345
347 349 349 344 346 348 350 350 349 348 348 349 350 351 352 353 353 351 350 351 352 352 351 351 349 346 345 344 344 342 341 341 346 344 343 343 345 346 346 344 344 344 344
346 348 349 345 346 347 348 348 346 345 346 347 349 350 352 351 350 349 349 350 350 349 347 347 346 344 344 343 342 340 338 339 343 345 343 343 344 346 345 344 344 343 343
346 348 348 347 347 344 343 343 342 344 344 346 346 347 348 347 347 348 348 348 348 347 346 345 344 343 343 342 340 337 336 338 345 344 342 341 345 345 344 343 343 341 340
343 347 347 346 346 349 351 341 341 342 342 344 345 345 344 344 345 345 345 346 347 346 345 344 342 342 341 339 338 336 335 337 345 344 344 344 343 345 344 343 342 340 339
337 340 344 344 344 348 350 348 343 343 342 342 344 343 341 352 351 350 346 343 344 343 343 342 341 340 338 338 337 336 335 343 345 344 344 339 341 344 343 341 340 338 337
336 335 338 340 341 345 346 347 349 348 348 348 349 350 351 351 351 349 345 339 340 340 340 340 339 338 338 343 342 337 342 343 343 343 342 336 341 343 342 340 338 337 336
336 338 337 337 340 342 342 342 344 345 345 345 346 347 348 347 349 349 349 348 349 341 346 342 342 343 344 343 343 343 343 343 342 342 340 335 341 343 342 339 337 336 335
338 337 340 340 338 339 340 340 342 343 343 341 342 344 344 342 344 345 346 347 347 347 347 345 344 344 344 342 342 342 342 342 342 341 337 333 337 342 342 340 337 336 334
334 340 339 340 340 338 337 338 339 340 340 340 341 342 342 340 340 342 344 345 346 346 344 343 342 342 342 341 341 341 340 341 340 340 341 330 331 337 341 340 338 336 334
315 328 342 339 340 340 337 337 338 339 340 340 342 345 342 342 341 341 340 342 343 343 343 342 341 340 340 340 339 340 339 340 340 340 340 338 328 330 336 339 339 336 335
311 314 331 341 341 339 339 339 338 339 339 338 342 346 345 345 343 341 339 339 341 341 341 340 340 340 339 339 338 338 338 339 338 337 336 333 334 327 328 335 337 337 334
309 311 316 329 340 340 340 340 340 340 341 341 343 343 345 345 344 341 337 337 340 338 338 337 337 337 337 336 336 336 337 337 337 335 333 332 333 331 328 328 333 334 334
307 310 313 318 334 340 341 341 340 340 340 341 342 342 342 343 340 339 338 336 337 335 334 335 335 336 334 333 333 334 335 333 333 334 331 331 331 330 330 330 328 329 331
306 309 311 313 320 336 340 341 340 339 340 340 339 338 339 339 337 338 338 335 335 333 331 331 332 333 334 334 331 332 333 331 334 332 330 330 331 329 331 329 330 331 326
306 305 306 309 314 326 333 334 333 331 334 337 337 338 338 337 336 337 338 333 334 332 330 329 330 329 328 330 327 326 327 331 329 330 331 330 329 329 329 327 330 332 329
311 312 314 313 309 312 329 335 335 334 334 337 336 336 336 336 336 335 335 333 332 332 330 329 328 326 327 328 324 323 319 323 328 330 331 329 329 328 327 326 327 329 330
307 308 309 312 315 316 315 331 337 338 338 333 333 334 334 335 335 334 334 333 332 332 329 329 329 327 324 325 328 324 317 315 320 326 326 326 327 327 327 326 325 326 329
303 305 307 308 310 315 319 321 333 331 329 331 333 334 334 334 335 334 333 333 331 331 331 330 330 329 328 323 325 326 330 326 319 315 321 324 326 325 324 324 324 324 325
298 299 301 304 308 314 318 322 333 333 334 335 336 336 334 333 334 333 333 332 331 332 332 330 330 329 330 327 324 324 326 324 322 318 315 317 321 324 325 324 323 323 322
294 296 298 300 304 312 320 321 332 334 333 333 335 332 332 333 332 333 332 332 332 331 331 330 330 330 328 327 327 327 323 321 317 317 316 316 319 319 322 322 322 323 324

GFSSE_sfc_thetae_114.txt.gz
Theta_e
346 356 350 352 352 352 352 353 353 353 354 354 354 354 354 354 354 355 355 355 356 358 357 356 356 355 353 353 355 354 354 353 352 352 352 352 351 351 350 350 349 348 351
348 357 349 351 352 352 352 353 353 354 355 355 354 354 354 353 354 355 355 356 355 357 356 354 356 355 354 355 354 352 352 351 350 350 351 350 351 350 349 348 348 349 349
349 356 354 349 351 352 352 353 354 356 356 355 354 354 354 354 354 354 354 354 355 356 355 353 355 354 353 353 351 351 351 349 349 349 350 348 349 349 349 349 348 349 349
351 354 354 348 350 351 351 352 354 356 356 354 354 354 354 354 354 354 354 354 355 356 355 352 353 355 352 350 350 350 349 349 347 348 349 346 347 348 349 347 348 348 347
350 353 354 347 348 350 350 351 353 354 354 354 353 354 354 354 354 354 352 353 354 356 355 353 353 352 349 348 347 348 348 347 346 346 345 348 346 347 347 348 347 347 346
350 353 349 345 347 349 350 350 352 351 351 351 352 353 354 354 354 353 351 353 354 355 355 354 352 349 347 346 346 346 345 343 343 346 346 346 345 347 348 347 345 346 345
350 353 355 343 346 349 350 350 350 349 349 350 352 352 353 354 353 351 350 352 353 354 354 353 350 347 345 345 345 344 342 342 346 344 343 346 346 347 346 346 345 346 345
351 354 355 347 347 347 348 348 346 347 348 349 350 351 353 352 351 350 350 350 351 351 350 349 347 345 345 344 343 341 340 340 343 343 344 344 345 346 346 345 344 343 344
353 354 354 351 350 344 344 344 343 345 346 347 348 348 349 348 347 348 349 349 349 347 347 347 345 344 344 343 341 339 338 340 344 344 341 342 344 345 345 344 343 344 343
351 354 354 351 352 353 353 342 342 342 343 344 346 346 345 345 346 347 347 347 347 346 346 345 343 343 343 341 339 337 337 338 345 343 343 343 344 345 344 343 343 343 342
346 349 350 348 349 352 354 350 343 343 343 343 345 344 344 353 353 352 347 344 345 344 344 343 342 341 340 339 338 337 337 344 343 342 343 341 343 344 344 342 342 340 340
343 347 346 348 346 348 350 353 352 351 349 350 350 352 352 352 351 350 346 341 340 340 341 340 340 338 339 345 343 338 344 342 342 341 343 339 342 344 343 342 341 339 338
337 345 346 345 347 348 350 348 349 349 350 350 352 352 351 350 351 351 350 350 351 343 348 343 344 345 344 343 342 343 342 343 341 341 340 337 341 343 343 341 340 339 337
328 341 345 348 347 349 348 344 346 350 348 347 349 352 350 349 350 349 348 349 348 350 348 346 344 344 344 343 343 343 343 342 339 343 343 334 338 342 343 342 339 338 336
317 329 343 346 346 347 347 345 344 347 347 349 348 347 350 349 347 347 348 347 348 347 348 345 344 343 342 342 342 343 342 342 341 342 343 333 333 337 342 341 340 338 336
313 316 324 341 346 346 345 346 346 347 347 346 345 346 347 348 347 344 346 347 347 346 347 346 345 344 342 342 341 340 341 342 342 341 340 341 330 331 338 340 340 339 337
313 315 318 326 340 346 345 345 345 345 345 344 342 347 345 345 348 344 343 345 345 348 346 346 344 343 341 341 340 339 341 341 340 340 340 340 337 327 331 335 338 336 337
312 314 316 317 326 341 345 344 343 344 344 343 343 347 349 344 346 345 343 343 346 347 345 344 342 340 340 339 339 338 338 339 339 340 339 338 337 336 329 329 330 334 335
311 312 314 317 319 332 340 344 345 345 344 343 344 345 347 348 348 347 344 342 345 342 343 342 341 341 338 337 336 337 339 337 339 337 337 337 337 335 334 329 327 327 331
316 318 317 316 317 320 333 340 340 343 344 344 343 344 346 347 348 347 344 344 342 338 339 341 340 340 339 337 336 335 337 338 339 337 337 336 337 336 332 334 332 329 326
316 316 318 319 322 316 317 328 331 336 339 342 343 344 345 347 347 345 342 343 339 337 337 339 338 337 338 339 334 333 335 335 335 335 336 335 336 335 333 333 331 331 329
311 313 314 315 317 320 319 317 330 334 336 338 343 345 345 344 345 345 343 340 337 336 335 336 335 332 333 335 329 328 323 328 332 334 335 333 334 334 330 331 330 330 330
306 308 309 311 313 315 318 322 319 331 334 335 339 342 344 343 343 345 342 339 337 337 333 333 335 332 328 330 336 329 323 320 324 331 332 332 333 332 329 329 328 329 330
301 304 306 308 309 312 316 318 320 320 326 333 335 338 341 344 342 342 341 339 337 336 333 333 335 335 332 326 329 334 333 329 321 319 328 330 332 331 328 328 328 327 329
300 300 301 304 305 309 313 316 319 319 330 332 336 337 339 339 338 338 339 339 336 337 334 333 333 334 333 330 327 328 331 331 329 323 320 324 327 331 332 328 327 327 327
298 298 298 299 301 303 306 312 317 322 325 330 332 335 337 337 335 335 336 336 336 335 334 333 333 334 333 332 329 333 330 327 326 323 321 323 323 327 328 328 327 326 326

GFSSE_sfc_thetae_117.txt.gz
Theta_e
343 354 351 352 353 353 354 354 354 353 354 355 355 354 355 355 355 355 356 356 357 359 358 356 355 355 352 351 353 353 353 353 353 353 353 353 352 351 349 350 349 347 350
345 356 349 351 353 353 354 354 354 353 355 355 354 354 354 354 355 355 355 356 357 359 357 356 355 353 353 355 354 353 353 351 350 351 352 352 351 350 349 349 349 348 350
346 359 354 349 351 353 354 354 355 355 356 355 354 354 354 354 355 356 355 355 357 358 355 355 354 354 354 355 352 352 351 350 350 350 351 347 347 349 349 348 348 349 349
348 357 355 349 351 352 353 354 354 356 356 355 354 355 354 354 355 355 355 354 355 357 354 354 354 354 353 351 351 351 350 349 348 349 349 347 346 349 349 348 348 348 348
349 355 356 348 349 351 352 353 354 355 354 353 354 354 355 355 355 355 353 354 355 356 354 353 355 353 350 348 348 348 349 348 347 346 345 347 345 348 348 348 346 347 346
349 353 348 346 348 350 351 353 354 353 352 352 352 354 354 355 355 354 352 353 355 356 355 355 353 351 347 347 347 347 346 346 345 345 345 345 345 347 348 347 346 347 346
349 354 355 345 347 349 351 352 352 351 350 351 352 352 353 354 354 352 351 352 354 355 355 354 351 348 346 346 346 345 344 344 346 343 343 344 347 348 346 346 347 345 346
350 354 358 347 347 347 349 349 348 348 349 350 351 351 353 352 351 350 350 351 352 352 351 350 347 346 345 345 344 342 341 341 344 343 342 344 346 347 346 345 344 344 345
354 354 357 353 350 345 345 344 344 346 348 348 349 349 350 349 348 349 350 350 351 350 349 347 346 345 345 344 343 340 339 340 344 342 341 343 345 346 346 345 344 345 344
352 355 357 354 353 351 350 343 343 344 345 346 347 347 346 347 347 347 347 348 349 347 347 346 344 343 343 342 340 339 338 340 345 341 341 343 345 346 345 344 344 343 343
348 350 356 353 352 353 351 349 343 344 344 344 347 346 344 353 353 352 347 345 345 344 344 344 343 342 341 340 339 338 338 342 339 341 339 341 345 345 345 345 344 343 343
335 347 350 351 351 355 350 353 350 349 348 349 350 352 353 351 352 348 346 343 342 341 342 342 341 340 340 344 343 338 344 341 338 341 340 341 344 344 343 342 342 342 341
327 345 348 348 350 350 352 351 349 349 348 349 350 351 350 350 352 349 350 349 351 343 348 344 343 344 343 342 341 342 341 341 339 338 338 339 343 343 343 342 341 340 340
320 336 348 349 349 350 353 349 349 347 350 349 350 356 352 350 352 350 347 348 349 349 348 347 344 344 345 345 343 341 341 341 340 340 338 338 340 344 343 342 341 339 338
317 323 338 348 349 350 350 349 349 350 347 349 349 354 351 348 351 350 347 348 347 347 347 347 344 344 342 342 343 342 341 342 341 339 343 335 338 340 343 342 341 340 339
316 317 322 328 347 348 349 351 350 351 349 349 348 350 355 351 350 348 348 344 347 346 345 347 345 342 342 342 342 342 342 340 340 341 341 340 333 335 339 342 342 341 339
314 317 319 322 328 343 346 347 348 347 348 347 347 353 348 353 353 350 347 346 343 346 348 348 347 345 342 343 341 341 341 341 341 341 340 339 337 329 331 337 338 338 338
312 314 317 317 321 327 338 343 345 346 348 346 347 347 349 347 351 350 345 347 347 347 347 345 344 343 340 338 339 341 340 340 341 341 339 340 338 337 330 330 333 334 331
313 316 317 320 320 322 328 338 344 347 347 346 346 346 349 349 350 349 345 345 350 347 347 344 342 342 341 340 339 339 340 339 339 337 338 340 339 337 336 329 328 327 330
317 318 319 320 323 324 321 327 335 340 344 346 346 344 347 350 350 348 345 346 346 346 345 345 343 342 340 339 336 336 340 338 339 338 337 337 336 339 336 336 333 328 325
314 314 315 317 320 321 322 317 323 335 339 343 344 347 345 348 351 349 347 347 346 342 342 344 343 341 338 341 337 336 336 338 338 337 337 335 334 335 337 336 334 332 327
310 311 312 313 315 317 318 321 320 324 333 340 344 345 348 348 349 349 348 347 347 342 338 339 339 339 341 342 334 331 324 329 334 336 335 334 336 335 335 336 335 332 333
306 308 308 309 311 313 316 317 319 324 323 334 339 340 344 347 349 349 349 348 346 344 340 337 337 335 332 339 340 330 323 320 327 333 335 334 335 335 335 334 333 333 332
303 306 307 307 307 309 313 313 315 316 318 326 336 339 340 345 347 349 349 348 347 344 340 336 336 335 333 329 334 336 335 330 323 321 330 333 335 334 335 334 332 331 331
301 302 303 303 304 307 309 310 311 315 319 323 325 338 339 343 344 347 348 347 345 343 341 339 335 334 334 331 330 333 336 335 334 326 322 324 330 331 333 334 334 331 330
298 299 299 300 301 303 304 306 306 310 315 318 324 329 334 338 341 345 344 344 342 340 340 340 337 334 334 332 331 332 331 330 329 326 324 325 324 328 330 333 332 331 330

GFSSE_sfc_thetae_120.txt.gz
Theta_e
348 349 350 353 354 355 355 354 353 353 354 354 354 355 355 355 354 355 356 357 357 358 359 357 357 355 351 351 353 353 353 352 352 353 352 353 352 350 351 350 350 347 350
350 350 349 352 353 354 355 354 353 353 354 354 354 354 354 354 354 355 355 356 358 358 357 356 356 354 353 354 354 353 352 350 350 351 352 352 351 350 350 349 348 347 349
350 352 350 350 352 354 355 355 354 354 355 354 354 354 354 354 355 355 355 355 357 358 358 356 355 354 356 354 352 352 351 350 349 350 351 344 346 350 350 349 349 349 349
350 353 351 349 351 353 353 354 354 355 355 354 354 354 354 355 355 355 354 354 356 357 355 355 354 355 355 351 350 350 350 349 348 348 347 345 343 350 349 348 349 349 349
350 356 353 348 349 352 352 353 354 354 353 353 353 354 354 355 355 355 353 353 355 356 355 355 356 354 351 348 348 348 348 348 346 346 343 344 343 347 348 348 348 348 347
350 354 345 346 348 351 352 353 353 353 351 351 352 353 354 355 355 354 352 353 356 356 355 355 355 350 347 347 347 347 347 346 345 342 341 345 344 347 348 348 347 347 346
352 353 349 344 347 350 352 353 353 351 350 351 352 353 353 354 354 353 351 352 354 355 355 354 351 348 346 346 346 345 344 343 343 342 339 342 343 348 346 348 346 345 345
354 357 350 347 347 348 350 350 349 349 349 350 350 351 352 352 352 351 350 351 352 352 352 350 348 346 345 345 345 343 342 341 342 341 339 342 344 347 347 346 344 344 345
357 358 355 350 348 346 345 345 345 347 348 348 349 349 350 349 348 349 349 350 350 350 350 348 346 345 345 344 343 341 339 340 339 341 340 342 346 346 346 345 345 345 344
354 358 356 353 349 348 348 344 344 345 346 347 348 347 346 347 347 348 348 348 347 348 348 346 344 344 344 342 341 339 338 339 339 339 339 341 345 347 345 344 345 344 344
349 353 358 353 351 349 347 346 344 346 346 345 347 346 343 350 348 348 347 345 347 343 345 344 343 342 341 341 340 339 338 339 337 337 339 340 345 347 345 345 344 344 343
334 349 353 352 351 352 347 347 346 346 347 349 350 349 350 350 350 348 345 342 343 341 342 342 341 340 340 341 338 338 339 340 337 336 338 340 345 346 346 345 343 343 342
323 344 350 350 348 352 349 349 345 345 344 346 348 349 350 349 349 345 345 344 345 341 343 341 340 341 340 340 340 339 339 338 336 337 338 339 344 346 344 343 343 343 341
318 324 348 349 347 347 351 350 347 345 345 344 345 348 347 347 346 344 345 345 345 344 344 343 341 340 339 339 339 338 337 335 336 337 337 338 342 345 344 343 342 341 340
319 324 339 348 347 346 347 346 347 345 345 346 346 347 347 345 345 346 344 345 344 345 343 342 341 339 338 339 340 339 338 337 338 336 337 335 337 342 345 344 342 340 339
316 320 322 327 346 346 345 343 346 346 347 347 346 347 348 346 345 344 344 344 343 343 344 342 341 339 338 339 338 338 336 336 337 336 338 334 334 337 340 344 343 341 340
313 316 324 323 326 336 343 343 345 345 345 345 344 348 347 347 346 345 344 342 343 343 343 341 342 340 339 339 338 337 338 338 337 336 338 336 332 331 334 339 341 341 339
315 317 319 322 322 324 327 341 341 343 343 343 345 345 346 347 348 344 342 343 344 342 342 341 340 339 337 337 336 336 336 338 336 336 335 337 335 334 329 332 335 337 336
314 315 316 319 320 323 324 324 328 341 341 343 344 344 346 345 345 346 343 342 343 343 341 341 340 339 337 336 336 337 337 335 334 336 335 335 334 334 332 329 330 331 330
312 313 314 315 317 319 320 323 321 322 340 342 342 341 344 345 343 342 344 341 341 341 340 340 339 338 338 336 335 335 334 334 335 333 334 335 335 333 331 330 327 326 326
308 309 310 311 313 314 314 316 318 318 324 338 341 342 342 342 343 342 342 342 340 338 339 340 338 336 336 336 333 331 333 333 333 333 334 332 333 333 333 329 327 328 324
306 306 306 308 309 310 311 313 314 315 318 321 336 341 342 342 343 343 342 340 340 337 337 340 339 335 335 336 330 328 324 327 331 332 333 332 332 333 332 332 330 328 327
302 302 303 305 306 307 308 309 312 314 316 317 320 328 340 341 341 344 342 340 340 339 337 338 337 336 332 334 333 326 320 317 322 329 330 331 329 329 329 330 330 330 329
299 300 301 301 302 303 306 306 307 308 309 314 317 322 335 340 341 342 343 342 341 341 338 337 337 335 334 331 333 333 329 325 316 317 326 329 328 328 328 329 329 329 330
296 296 297 298 297 299 301 303 303 304 307 312 315 318 322 329 337 340 339 341 341 340 340 337 335 334 335 332 332 330 330 329 327 321 316 321 327 328 330 330 330 329 330
293 292 293 293 294 295 296 298 299 300 301 304 308 312 316 323 331 336 337 338 340 339 336 337 334 334 333 332 332 331 329 327 325 323 319 318 320 323 326 329 330 329 328

GFSSE_sfc_thetae_123.txt.gz
Theta_e
345 349 350 353 354 354 352 351 351 352 353 354 354 354 354 354 354 354 355 356 357 358 356 354 355 354 353 353 352 351 351 351 350 352 353 353 351 351 351 352 349 348 350
346 349 348 352 353 354 353 352 351 352 353 354 354 353 353 353 354 354 354 355 357 358 357 355 355 353 352 353 352 351 350 349 349 349 351 351 352 350 351 350 349 348 350
347 349 350 349 352 353 354 353 352 353 354 354 354 353 353 353 354 354 354 355 357 358 356 355 354 352 354 352 350 350 350 349 349 349 349 344 346 351 351 349 348 350 349
348 348 349 349 351 353 353 353 353 354 355 354 354 353 353 354 354 353 353 353 356 357 356 355 353 354 354 350 349 349 348 348 347 348 344 343 345 350 349 349 348 349 349
348 348 349 348 349 351 352 352 352 353 353 352 353 354 354 354 354 354 352 352 355 356 355 355 355 354 350 347 347 347 347 346 344 342 342 342 342 348 349 349 348 349 348
348 349 345 345 347 351 351 352 352 351 350 350 351 353 354 355 355 353 351 352 355 355 355 356 355 350 347 346 346 346 343 344 342 341 341 345 343 348 348 348 347 347 347
347 346 346 344 347 350 352 352 351 350 349 350 351 351 353 354 353 351 350 351 353 353 354 353 350 347 345 345 345 344 341 340 336 333 339 341 343 348 348 347 347 346 346
349 347 346 347 347 348 350 350 349 348 348 348 349 350 352 351 350 350 350 350 351 351 350 349 347 345 344 344 344 343 341 338 335 329 331 339 345 348 348 347 344 344 344
349 346 344 345 347 346 346 345 345 346 347 347 348 348 349 348 347 348 349 349 349 349 348 347 345 344 344 343 342 341 338 339 337 337 339 337 345 348 347 345 345 344 344
345 349 345 344 344 342 343 343 344 345 345 345 346 346 345 346 346 346 346 347 348 347 347 345 343 343 343 342 341 339 337 338 337 337 340 340 345 347 346 346 345 344 344
341 345 346 344 344 342 342 344 344 345 345 344 345 345 342 347 346 346 345 345 345 344 344 343 342 341 341 340 340 338 337 337 337 337 332 340 344 347 346 346 345 344 343
331 340 345 345 343 342 345 341 341 344 345 345 346 346 345 345 345 346 344 342 342 341 342 341 340 339 339 337 336 338 336 337 335 336 337 339 344 347 346 345 344 344 342
313 342 345 345 344 346 343 341 341 341 342 344 344 344 345 346 345 345 344 343 342 340 340 340 339 338 338 337 337 335 336 336 334 335 336 337 343 347 346 345 343 343 342
307 319 344 344 343 342 343 343 340 341 340 342 343 345 345 344 343 342 342 341 341 341 339 339 337 337 337 337 337 336 336 334 333 334 335 336 340 345 346 344 344 342 340
308 312 339 341 341 342 343 340 342 341 340 341 341 345 345 342 340 340 340 341 342 341 341 339 338 337 337 336 336 335 335 333 335 336 335 335 337 341 346 344 343 342 341
312 313 315 318 326 337 337 336 337 340 342 340 342 343 345 343 340 341 337 341 341 341 341 340 338 336 335 335 335 335 332 333 334 334 333 334 334 337 341 344 344 342 341
311 313 313 315 317 317 320 328 336 338 340 339 342 343 344 344 341 341 340 339 341 341 341 340 339 337 335 335 334 334 334 333 333 335 334 333 332 332 334 339 341 342 341
309 309 311 313 312 312 313 317 322 328 334 338 340 341 344 344 343 340 341 338 341 340 340 338 338 336 335 334 332 335 333 334 334 333 335 334 333 334 330 332 336 338 339
305 306 306 308 308 309 311 313 315 318 325 333 338 340 341 342 343 340 341 340 338 339 338 338 337 337 334 333 333 334 332 332 332 333 332 333 332 332 331 329 331 332 335
303 303 303 305 307 307 308 309 311 313 315 320 332 337 338 340 342 341 339 336 338 336 336 337 335 336 335 333 334 333 332 332 332 331 331 332 334 333 331 329 329 329 328
299 299 300 301 303 304 304 304 305 306 309 312 317 322 337 338 340 339 340 336 336 336 336 335 335 334 333 334 329 325 327 331 331 331 330 330 332 332 331 330 328 329 327
296 296 297 297 298 299 301 302 303 304 307 310 314 317 320 329 338 339 337 337 339 336 334 335 335 333 333 334 327 325 321 324 329 331 329 330 331 330 329 329 327 327 325
292 292 293 293 294 295 297 298 300 303 304 306 309 312 316 322 332 337 337 337 337 337 333 335 336 334 330 332 330 323 316 315 320 325 329 329 329 329 330 328 326 326 325
289 290 290 291 291 293 294 293 293 295 297 302 304 308 310 315 320 329 337 337 336 337 336 332 337 336 332 329 330 330 323 321 316 314 323 329 327 326 327 328 327 327 326
288 288 288 289 290 290 290 291 291 291 296 299 301 301 304 309 315 321 328 335 337 336 337 335 333 335 333 331 330 329 326 321 322 317 314 319 323 326 327 327 329 328 328
286 286 286 287 287 288 289 289 289 289 292 294 296 297 299 303 308 315 321 328 334 336 335 336 336 335 334 331 332 331 329 325 322 318 315 317 321 322 327 327 327 328 328

GFSSE_sfc_thetae_126.txt.gz
Theta_e
344 349 351 353 353 352 351 351 351 351 352 353 354 354 354 354 354 355 356 356 356 356 355 354 354 354 352 352 351 351 351 351 352 352 352 353 351 351 352 351 350 348 350
345 349 349 352 353 352 352 351 351 351 353 354 353 353 353 353 353 354 355 356 356 356 354 353 354 352 352 351 351 350 350 349 349 351 351 351 351 352 350 350 349 348 350
345 348 350 350 352 353 352 352 352 353 354 354 353 353 353 354 353 354 354 355 357 357 355 354 353 353 351 350 348 348 349 348 348 349 349 344 346 351 350 349 349 349 349
346 347 349 349 351 352 352 351 352 354 354 353 353 353 353 354 354 353 353 353 355 357 355 354 353 353 352 349 348 347 348 348 346 346 343 342 345 350 349 348 349 348 348
346 347 349 348 349 351 351 351 351 353 352 352 352 353 354 354 354 353 351 353 355 356 355 354 354 353 349 347 346 346 346 346 343 344 339 340 343 347 349 348 348 348 347
345 347 344 345 348 350 351 351 351 351 350 350 351 353 354 354 354 352 350 352 354 355 356 355 354 349 346 345 345 345 345 343 341 340 340 343 343 348 349 347 346 347 345
344 345 345 342 346 350 351 351 351 349 348 349 350 351 352 353 353 350 349 351 352 352 353 353 349 346 345 344 345 342 342 341 332 336 336 340 341 348 348 347 346 344 346
345 345 345 345 346 347 349 349 348 347 347 347 348 349 351 351 350 349 349 350 350 350 350 349 346 345 344 344 343 341 339 338 333 331 333 338 343 346 347 346 345 344 345
345 343 343 344 346 344 344 344 344 345 345 346 346 347 348 347 346 347 348 348 349 348 348 347 345 343 344 343 342 339 337 337 331 330 334 339 345 347 346 346 345 345 344
344 342 341 341 343 343 344 342 343 343 343 344 345 345 344 344 345 345 345 347 347 347 347 345 343 342 342 341 340 337 336 337 335 335 336 337 344 347 347 346 344 344 344
342 343 340 340 341 341 341 344 343 344 343 343 344 343 341 346 345 345 344 343 345 344 344 343 341 341 340 339 339 337 336 336 334 335 336 339 345 347 347 346 345 344 343
313 339 342 340 340 340 344 341 341 344 346 346 345 344 346 345 344 345 343 341 341 341 341 340 340 339 338 337 336 338 335 335 335 334 332 338 344 347 346 346 344 344 343
307 335 341 341 340 339 340 339 339 340 343 342 344 345 344 345 343 343 342 342 342 340 342 340 338 338 337 335 334 334 334 335 334 333 334 336 342 347 346 345 344 344 342
312 319 328 330 337 338 341 338 338 339 339 341 342 343 342 343 343 342 341 341 341 341 340 340 338 338 336 336 335 334 334 333 332 333 332 334 339 344 346 345 344 343 342
310 312 314 317 317 321 325 331 339 338 337 339 342 343 344 342 342 342 341 340 341 341 339 338 337 336 335 335 335 335 334 332 332 333 332 333 335 340 345 344 344 343 342
308 308 311 311 312 314 314 316 321 330 337 338 339 343 342 343 342 342 341 340 340 340 340 339 337 336 335 334 334 334 334 332 333 333 333 334 332 335 340 344 345 343 342
305 306 307 308 308 308 309 313 315 318 323 330 339 341 342 342 341 340 339 339 340 340 339 338 337 335 333 333 333 333 333 332 333 333 333 333 333 330 333 339 341 343 342
302 301 303 307 306 306 307 308 310 313 316 319 325 331 338 341 340 337 339 338 340 340 339 338 337 335 333 331 331 332 332 332 332 333 333 332 332 334 331 333 337 339 339
298 299 299 301 300 302 304 305 306 307 309 312 314 319 324 333 339 337 339 339 337 338 339 337 336 335 333 331 331 331 331 331 331 332 332 331 331 332 332 330 331 332 335
295 295 296 297 296 298 299 301 302 303 305 307 309 314 317 320 325 335 338 336 335 336 335 337 335 336 334 333 332 331 329 330 331 330 330 333 331 331 331 331 332 332 329
291 291 292 292 293 294 295 294 296 297 300 303 306 309 314 319 321 323 335 329 334 336 336 335 335 333 333 333 328 323 324 327 329 330 331 330 331 331 330 330 330 331 330
289 289 290 290 290 291 292 293 294 295 298 300 303 306 309 312 314 317 320 333 330 334 334 332 332 332 333 332 327 324 318 322 326 329 330 330 328 331 330 329 328 328 329
287 286 288 288 288 290 291 290 291 292 293 295 298 300 304 306 307 311 314 319 331 327 326 332 333 332 328 332 331 322 319 319 320 324 328 329 328 328 329 329 327 327 328
285 286 287 287 287 289 289 288 288 287 287 290 293 297 299 302 304 307 311 316 321 330 329 331 334 333 331 327 330 331 323 320 317 315 322 328 329 328 327 327 326 326 326
285 285 285 286 287 287 288 287 287 286 288 289 291 293 295 298 300 303 307 311 316 323 330 331 332 331 332 330 329 327 323 319 318 315 312 322 327 328 328 327 326 325 325
285 285 286 286 286 287 286 286 286 285 285 286 288 289 292 295 297 300 304 309 316 319 321 329 331 332 331 331 332 330 327 323 319 317 313 316 321 324 327 327 326 327 326

GFSSE_sfc_thetae_129.txt.gz
Theta_e
342 348 350 352 352 351 350 350 349 351 352 354 353 353 353 354 354 355 355 356 356 357 355 353 353 351 350 350 351 352 352 351 351 352 352 352 351 351 351 351 350 346 349
343 348 349 351 352 351 351 350 350 351 352 353 353 353 352 353 354 354 355 355 355 355 354 352 352 351 350 350 349 350 350 349 349 350 352 352 351 351 350 349 349 347 350
344 348 349 349 351 351 352 351 351 353 353 353 353 352 352 353 354 354 354 355 354 354 352 352 352 350 350 349 348 349 349 348 348 349 350 343 344 350 350 349 348 348 349
346 347 349 349 350 351 350 351 352 353 353 352 352 353 352 353 353 354 353 353 355 355 353 352 352 350 350 348 347 348 348 347 346 347 342 342 345 350 349 347 348 347 348
344 347 348 348 349 351 350 350 351 352 351 351 351 353 353 353 353 353 352 352 354 356 353 353 353 351 348 346 345 346 346 345 344 343 338 340 341 347 348 348 347 347 347
343 345 344 345 347 350 350 350 350 350 349 349 350 352 353 354 353 352 350 352 355 356 355 354 353 349 346 345 344 345 344 343 341 339 339 342 341 348 348 347 347 345 346
342 344 344 343 346 349 351 350 350 349 348 348 349 350 351 352 352 350 350 351 352 354 354 353 350 346 345 344 344 343 342 340 337 337 338 339 340 348 348 347 347 345 346
342 343 343 345 346 347 349 348 347 347 347 347 348 349 350 350 349 348 349 349 349 350 350 349 346 345 344 344 343 340 339 336 334 334 335 336 342 349 347 346 344 344 344
341 341 341 341 345 344 343 344 344 344 345 345 346 346 348 346 346 347 347 348 348 348 348 347 344 343 343 343 342 339 336 336 325 330 334 336 345 347 347 346 345 344 344
340 339 338 338 340 341 342 341 342 343 343 343 345 344 343 343 344 345 345 346 347 347 346 346 343 342 342 341 340 337 336 337 330 332 333 336 343 347 346 345 345 345 344
332 338 337 337 338 339 340 343 343 344 343 342 343 342 339 344 343 343 343 343 344 344 344 343 342 340 339 339 339 337 336 335 333 333 333 337 343 347 346 346 345 344 343
309 328 338 336 336 338 342 340 340 342 345 344 343 342 345 345 341 343 342 340 341 341 341 341 340 338 338 336 336 337 334 334 333 333 332 337 343 346 346 345 343 344 343
313 314 317 324 335 337 339 339 337 339 343 342 344 345 345 343 343 342 340 340 340 340 341 339 336 336 336 335 334 334 333 332 332 332 332 335 342 347 347 345 343 343 342
308 310 311 313 315 318 321 325 335 339 340 340 341 342 342 341 341 341 341 342 342 342 341 341 338 337 334 334 334 333 332 332 331 331 331 332 338 345 347 346 344 343 342
304 307 308 308 309 312 314 316 319 322 327 336 340 341 342 340 340 340 340 340 341 341 340 338 338 337 335 333 333 333 332 331 331 331 330 332 334 340 344 345 345 344 342
302 302 305 305 305 307 308 310 313 317 322 326 330 333 338 339 338 340 340 341 339 341 339 338 336 335 334 334 333 333 332 331 330 331 330 332 331 335 340 345 345 344 343
298 299 299 300 299 301 304 306 308 311 316 317 322 324 325 326 335 338 339 339 339 341 339 338 336 336 333 334 332 332 333 331 330 331 331 332 332 330 333 338 341 343 343
294 294 295 297 296 296 298 301 303 306 308 310 313 317 322 323 323 323 336 337 338 339 338 338 335 333 333 332 332 330 332 331 330 330 330 331 332 333 330 333 337 339 341
291 291 291 293 292 293 295 297 298 302 303 305 307 311 313 316 321 323 331 333 333 335 337 337 336 334 332 331 331 330 330 331 330 331 330 330 330 331 333 330 332 332 336
289 290 290 290 291 291 293 293 295 298 298 300 303 305 309 313 318 321 323 323 328 328 334 336 335 335 333 332 331 330 329 330 329 330 330 331 329 330 331 331 332 332 330
288 287 288 288 288 289 290 289 290 291 291 296 297 301 306 309 312 314 318 319 317 327 329 332 334 334 332 332 326 325 324 326 326 329 331 330 329 329 329 330 331 333 332
286 286 287 286 287 288 288 288 289 289 291 292 295 298 300 304 305 305 307 312 316 323 327 328 331 330 332 332 325 324 321 324 326 328 329 330 330 330 328 329 329 330 332
284 285 286 286 286 287 288 288 287 288 289 290 290 291 295 297 300 304 305 308 313 318 324 324 327 329 326 330 330 323 317 317 322 324 328 329 328 329 329 328 327 328 330
284 285 286 286 286 288 288 286 285 284 284 286 287 289 291 294 297 300 302 303 307 312 316 324 326 324 326 325 328 329 327 323 318 316 323 328 329 327 328 328 328 327 328
284 285 286 288 287 287 286 286 285 284 285 286 287 287 289 291 294 296 300 302 304 309 315 320 324 322 323 326 327 325 326 324 322 317 316 323 327 329 329 328 328 327 326
284 285 286 287 285 287 286 286 286 285 285 286 287 287 288 290 292 294 296 298 302 307 312 319 321 325 325 327 328 327 325 322 320 319 314 316 323 326 329 327 326 326 326

GFSSE_sfc_thetae_132.txt.gz
Theta_e
340 345 350 352 352 351 350 349 350 351 352 354 355 355 355 354 355 355 355 356 356 357 353 353 352 352 351 351 353 352 351 351 351 352 352 352 351 351 350 351 349 347 350
339 347 348 351 352 351 351 349 350 352 353 353 354 354 354 354 354 355 355 355 356 356 353 352 351 350 350 350 350 351 350 349 349 350 352 351 350 351 350 349 348 347 350
343 347 349 349 351 351 351 351 351 352 354 353 352 353 354 354 354 354 354 354 355 355 352 352 351 350 349 350 348 350 349 349 348 349 351 346 346 351 349 349 348 349 349
344 346 347 349 349 350 350 350 351 353 353 353 352 352 353 354 353 353 353 352 353 354 353 351 351 350 350 348 348 348 348 348 347 347 344 344 347 350 349 348 349 349 348
344 346 347 348 348 350 350 350 351 351 351 351 352 353 354 354 354 353 352 352 353 354 354 352 351 350 348 345 346 346 346 346 345 342 341 342 344 348 348 348 347 348 348
342 345 343 345 347 350 350 350 350 350 349 349 350 352 353 354 354 353 351 352 354 355 354 354 353 349 345 344 344 345 344 343 342 339 340 344 343 349 348 348 347 346 347
341 343 344 343 346 349 350 350 349 348 347 348 349 351 352 352 352 351 350 351 353 354 353 353 351 347 345 344 344 343 342 341 339 338 338 341 342 348 348 347 347 346 346
341 342 342 345 345 346 348 348 347 346 346 346 347 349 351 351 349 349 349 350 350 351 350 350 347 345 344 343 343 341 339 337 338 337 337 338 341 347 348 347 345 344 344
341 340 339 340 343 344 343 343 343 344 345 345 345 346 347 346 345 347 348 348 348 348 348 347 345 343 344 343 341 339 337 335 332 335 337 337 344 347 347 346 346 345 345
331 338 337 338 339 340 341 340 340 341 342 343 344 343 342 343 343 344 345 346 347 346 347 346 343 342 342 341 340 337 336 335 327 331 334 337 342 346 347 346 346 345 344
322 326 337 336 337 337 339 342 343 344 340 342 343 342 338 343 341 342 342 343 344 343 344 344 342 340 339 339 339 337 336 335 330 332 332 337 342 346 347 346 344 344 344
309 313 317 321 325 337 340 338 337 343 343 344 343 343 343 345 344 342 341 340 341 340 341 341 340 338 338 336 336 337 335 335 334 333 333 336 342 346 347 346 344 343 343
307 308 308 310 314 315 318 325 335 340 342 343 341 342 344 343 343 343 340 339 339 339 341 339 337 336 336 335 334 333 333 333 333 333 334 334 341 346 348 346 344 344 342
301 303 305 304 306 308 312 314 317 321 327 336 339 340 340 339 338 339 341 341 341 342 342 341 339 336 336 334 333 333 332 332 332 332 332 332 337 345 348 346 345 345 343
296 297 299 299 299 302 305 307 310 313 318 323 330 328 333 338 338 339 340 340 339 340 340 338 338 337 335 335 333 332 332 332 331 332 331 331 333 340 346 347 345 344 343
294 294 295 296 295 296 299 301 304 307 311 315 319 323 326 328 330 338 337 339 338 339 340 339 337 336 334 334 334 333 332 332 331 331 331 331 329 334 340 344 345 345 343
291 292 292 294 293 292 294 296 299 303 306 307 309 314 317 322 322 323 329 335 337 340 339 337 337 334 333 333 332 333 333 332 332 330 331 331 331 328 332 337 342 343 344
289 289 291 292 291 291 292 294 295 298 302 302 303 309 311 311 316 320 322 329 330 332 338 337 336 333 333 332 332 332 332 332 331 331 330 331 331 332 330 332 336 340 341
288 288 288 289 289 289 291 292 292 295 297 295 300 301 304 306 314 315 318 322 330 327 320 332 335 334 331 331 331 332 331 331 331 332 330 330 330 332 333 330 330 332 336
286 287 287 288 288 289 290 290 290 292 292 293 296 296 300 306 307 310 312 315 318 321 320 323 327 332 332 332 331 330 330 331 330 330 331 331 331 331 331 332 332 332 329
286 286 287 287 287 287 287 286 287 288 289 291 292 295 298 297 304 304 303 306 309 313 317 324 324 326 326 331 327 328 328 330 328 330 331 330 330 330 331 331 332 334 333
284 285 286 286 287 287 287 287 287 287 288 289 291 292 293 296 296 297 299 303 306 308 313 320 323 321 322 326 325 324 320 323 325 328 329 329 330 330 329 330 331 332 334
283 284 285 286 287 287 287 287 286 287 287 287 287 288 290 291 293 295 298 300 302 305 308 313 321 323 320 323 325 324 316 316 322 326 328 329 329 329 330 329 329 330 332
283 284 286 287 286 287 287 286 285 285 284 286 287 288 288 290 292 294 295 296 298 299 303 307 313 325 324 318 324 329 328 323 316 315 324 328 329 328 329 329 329 329 330
284 285 284 287 285 287 287 287 286 285 286 287 288 288 290 291 292 292 294 295 297 300 302 305 310 314 323 322 320 321 321 322 323 318 314 321 327 329 330 330 330 329 328
285 284 283 286 285 286 285 286 285 285 285 285 286 288 290 292 293 294 295 296 295 296 298 304 311 314 319 321 321 320 319 319 319 319 317 318 321 324 329 331 329 329 329

GFSSE_sfc_thetae_135.txt.gz
Theta_e
344 349 350 352 352 350 350 350 351 352 354 356 355 354 354 354 354 354 355 355 357 358 356 354 352 351 352 352 353 352 352 352 352 353 353 353 352 352 351 351 349 347 351
344 351 349 351 351 351 351 351 351 352 354 355 355 354 354 354 354 355 355 355 356 357 355 353 351 350 350 351 352 351 351 350 350 351 352 352 352 351 351 350 348 348 351
348 352 353 350 351 351 351 351 352 353 354 355 355 354 354 354 355 355 355 354 356 355 353 352 351 349 350 350 350 350 350 349 349 350 351 347 347 351 350 349 349 350 350
349 352 353 349 350 351 350 351 352 353 353 353 354 355 355 355 355 355 354 353 354 354 353 352 351 350 350 349 348 349 349 348 348 349 349 349 348 350 349 349 349 349 349
349 351 352 348 348 350 351 351 351 352 352 351 352 354 355 355 355 354 352 352 354 355 353 352 351 352 348 346 347 347 347 347 346 347 348 349 350 349 349 349 349 348 347
349 350 348 346 348 350 350 350 350 350 349 350 350 352 353 354 354 353 351 351 353 354 354 354 353 350 345 344 345 346 345 345 343 347 348 348 348 348 347 349 346 347 346
348 350 350 343 346 349 351 350 350 349 348 348 350 351 352 353 353 351 350 351 353 354 353 353 352 347 345 344 345 344 343 342 346 347 347 349 348 349 348 348 348 347 347
348 349 350 347 346 346 347 348 347 347 347 347 347 349 351 350 348 348 349 350 351 351 351 350 349 346 344 344 343 342 340 340 343 345 346 347 348 348 348 347 346 345 345
343 348 349 349 348 344 341 342 342 342 343 346 346 346 347 344 345 348 348 349 346 347 348 349 346 344 344 343 342 340 338 338 347 346 344 346 345 348 347 347 345 346 346
322 320 327 339 347 348 348 341 341 342 342 341 343 344 343 341 341 345 345 344 346 347 347 347 344 343 343 342 340 338 337 335 344 346 346 345 343 347 347 348 346 346 346
315 313 314 316 318 328 339 344 344 344 341 341 344 342 341 350 351 348 345 343 344 344 345 345 343 341 340 340 340 337 337 345 341 341 344 340 342 346 348 347 345 345 343
307 308 308 310 312 316 322 326 332 342 348 348 344 344 347 348 348 348 343 338 338 339 342 341 340 339 339 345 345 339 344 345 344 340 340 336 342 346 348 347 345 345 344
301 303 303 303 306 309 313 316 319 325 331 338 343 344 345 346 347 346 346 348 349 342 349 345 346 347 345 345 344 345 345 345 343 342 338 334 340 345 348 347 346 344 343
299 299 301 301 301 303 307 308 311 314 319 326 327 330 339 344 345 343 343 344 345 345 344 346 345 347 346 344 344 344 343 343 343 342 341 333 336 344 346 347 346 345 343
296 298 298 300 298 299 301 303 306 308 313 316 318 322 326 328 334 341 343 344 343 344 342 341 342 342 343 343 342 341 341 341 342 342 342 332 332 338 345 348 346 345 344
295 295 297 297 297 297 298 300 301 304 309 311 311 317 322 323 324 325 328 338 341 343 341 339 339 340 341 342 341 339 340 340 341 342 341 340 329 333 340 345 348 347 346
293 294 295 296 296 296 297 298 299 301 305 306 305 314 311 312 314 322 325 326 334 333 333 333 337 339 339 339 339 339 339 339 339 340 340 340 337 327 332 337 341 344 344
292 292 294 294 295 295 295 297 297 299 303 301 303 307 305 308 314 318 320 323 328 329 323 321 321 322 332 335 336 337 337 338 338 340 339 339 339 340 331 330 335 338 341
291 292 292 294 293 294 295 295 297 298 299 298 301 300 303 308 308 310 314 319 321 323 326 323 318 315 312 329 332 336 337 336 337 338 338 339 339 338 340 331 329 332 335
291 292 292 293 293 293 294 294 295 296 296 297 297 298 302 301 301 305 307 309 311 313 319 324 320 317 314 325 330 332 335 336 336 336 337 338 338 339 339 340 339 336 328
291 291 291 291 292 292 292 291 292 292 293 295 295 297 297 297 300 300 301 304 307 308 312 317 321 323 322 325 327 331 332 335 334 333 334 338 338 338 338 339 341 340 338
289 290 290 291 292 291 291 291 291 291 292 293 294 295 295 296 296 297 299 300 303 306 308 311 316 322 325 330 327 325 322 327 331 332 333 335 336 338 337 338 340 340 341
288 289 289 290 290 291 291 291 291 292 292 292 292 293 294 295 296 296 297 299 301 303 304 307 312 316 318 326 328 322 318 316 325 331 330 331 333 336 338 338 338 339 340
288 289 288 289 289 290 290 289 289 287 286 289 290 291 292 294 295 297 297 298 299 301 302 304 306 310 313 319 328 328 325 326 319 317 328 330 333 334 337 338 338 338 339
287 288 287 288 288 288 288 288 287 286 288 289 290 290 291 293 294 295 296 299 299 300 301 303 305 307 312 311 321 326 325 323 324 316 315 323 329 332 336 339 339 340 338
287 286 286 287 286 287 286 286 286 285 286 287 288 288 289 292 294 295 296 297 299 299 299 300 302 303 306 310 312 322 322 323 319 317 314 317 319 327 333 337 337 339 339